ECMWFNIL_sfc_thetae_045.txt.gz
Theta_e
359 359 357 357 357 358 359 359 360 360 361 361 361 362 363 366 368 367 367 367 367 366 364 363 362 362 362 363 361 359 357 355 353 354 352 350 349 348 347 347 347 347
359 359 359 359 359 360 361 361 361 360 361 363 362 363 366 367 367 367 367 366 366 364 364 362 362 362 363 361 360 357 356 355 353 353 351 351 350 349 347 348 347 347
359 359 358 358 357 358 356 360 361 361 360 361 363 364 364 366 366 367 367 367 366 364 363 362 362 362 362 362 360 357 356 354 353 351 351 351 350 349 349 346 347 348
360 360 358 357 358 358 359 359 360 361 360 360 361 362 362 364 365 366 366 366 366 365 363 362 362 361 362 362 360 357 356 355 353 353 351 351 351 349 349 349 347 347
360 360 359 359 359 360 361 360 358 358 358 359 361 362 363 364 364 364 365 365 365 364 363 361 362 361 362 361 359 357 355 353 353 352 351 350 351 349 348 348 347 345
360 361 361 360 360 361 359 359 358 358 359 358 360 361 361 363 363 362 363 363 363 361 361 361 362 360 360 361 359 357 355 353 352 351 349 350 349 349 347 348 347 346
359 360 360 360 360 361 360 360 360 360 359 359 361 360 361 361 361 362 364 363 362 362 361 362 362 361 362 360 358 357 356 355 353 351 349 349 350 349 348 348 347 346
358 359 359 359 359 359 359 359 360 360 360 361 360 361 361 360 361 362 363 363 362 363 363 364 365 364 361 360 358 356 356 354 353 351 350 350 349 349 349 347 348 347
358 358 359 359 358 358 358 357 359 360 360 359 359 359 361 361 361 361 363 364 363 363 364 364 364 363 362 360 358 357 355 354 353 351 350 349 348 348 349 348 347 347
358 358 358 357 356 357 357 357 357 359 360 359 358 358 359 361 362 362 363 364 362 362 363 363 363 363 362 360 358 357 356 355 353 352 351 350 349 349 348 348 347 346
357 357 357 356 356 356 356 357 357 357 358 358 358 358 359 360 361 362 363 363 361 361 362 362 362 362 361 359 358 358 357 356 354 353 352 351 351 350 349 349 347 347
357 357 356 356 356 356 356 357 357 358 358 358 358 357 358 358 359 360 361 362 362 362 362 363 363 362 362 360 358 357 356 356 355 354 352 352 351 351 350 349 348 347
357 356 356 356 357 357 357 357 357 357 357 357 358 357 357 357 357 359 360 361 361 362 361 362 362 362 361 361 359 358 356 355 354 353 352 352 351 350 349 349 348 347
358 358 357 358 358 359 359 358 358 358 358 359 359 357 356 356 356 357 359 360 360 361 362 362 362 361 361 361 360 358 356 355 354 353 352 351 351 350 349 348 347 347
358 359 359 359 359 360 359 359 358 359 359 359 360 359 358 357 358 358 358 359 359 360 361 361 360 360 360 360 359 358 357 354 354 353 352 351 351 349 349 348 348 347
359 360 360 360 360 360 360 360 359 359 359 359 360 359 359 359 359 358 358 358 358 359 360 359 359 360 348 336 341 357 357 355 354 354 353 352 351 349 348 348 347 347
359 359 359 359 359 359 360 360 360 360 360 360 360 360 359 360 359 358 357 357 357 357 358 358 358 357 335 330 332 336 352 356 354 354 353 352 351 350 349 348 348 348
357 358 358 358 359 359 360 360 360 360 360 360 359 359 360 360 359 359 359 358 357 357 357 357 358 340 329 328 330 330 336 355 355 354 353 351 351 350 350 349 348 347
359 358 358 358 359 359 360 360 360 360 359 359 358 360 361 360 359 358 358 359 358 357 356 357 357 336 328 326 328 327 328 339 355 355 353 351 351 350 350 350 350 348
359 358 357 358 359 359 359 359 359 358 359 360 359 360 359 359 359 359 359 359 358 358 358 358 358 335 325 324 325 325 326 333 354 354 354 352 351 351 351 351 351 348
358 358 358 359 359 359 359 358 358 359 359 359 358 358 357 357 357 357 358 358 358 357 357 357 357 329 323 322 321 321 324 328 352 354 354 353 352 352 353 352 352 349
358 358 359 359 359 359 358 357 358 358 358 359 358 357 358 358 359 359 357 357 358 357 356 356 357 326 322 321 320 320 322 338 349 353 353 352 352 353 353 354 352 350
357 357 358 358 359 358 357 357 358 358 359 360 358 357 357 357 357 357 358 358 357 356 356 355 356 334 320 318 318 318 323 343 348 351 352 351 352 353 353 353 351 350
358 357 357 357 358 357 357 358 358 359 359 360 357 356 355 356 357 357 357 357 357 356 356 355 356 336 316 316 317 316 326 345 348 350 351 350 351 352 352 352 350 342
358 357 357 357 357 358 358 358 358 359 360 361 358 358 357 358 357 356 357 359 357 357 343 352 356 337 315 317 316 315 327 348 350 351 349 350 350 350 351 349 350 343
357 358 359 358 358 359 360 359 361 360 359 359 358 357 356 356 356 357 356 356 357 357 357 355 356 356 330 315 315 314 319 347 352 350 348 349 350 349 348 346 347 347

ECMWFNIL_sfc_thetae_051.txt.gz
Theta_e
367 367 366 365 364 363 363 364 366 367 367 363 361 364 363 366 368 366 365 367 370 370 368 369 371 370 369 370 370 369 367 366 363 362 361 357 355 353 348 349 350 348
367 368 368 367 366 366 365 364 366 367 367 367 364 363 367 367 367 367 366 366 369 371 371 368 370 372 371 368 369 368 368 367 365 362 361 358 356 354 350 351 349 351
367 367 367 367 364 365 363 365 366 366 365 367 366 365 365 368 367 369 369 368 368 369 371 369 369 371 370 368 369 368 367 367 365 362 362 360 355 354 354 348 348 349
368 368 367 366 366 366 366 365 365 366 366 366 366 364 363 364 368 368 370 371 369 370 370 370 368 368 369 367 368 366 367 368 367 366 362 361 358 355 355 353 349 348
368 368 368 368 367 367 368 366 363 364 365 364 366 368 367 367 367 368 370 370 371 370 370 370 369 368 369 368 368 366 365 365 366 366 362 360 360 357 355 354 351 348
368 369 370 369 367 368 366 366 365 363 365 363 364 366 366 367 366 367 369 368 369 368 366 367 368 367 368 369 368 366 363 362 364 365 363 361 358 357 355 355 353 349
368 369 369 367 367 368 367 368 368 367 365 365 366 365 366 367 367 368 369 369 367 369 366 367 369 368 368 369 368 366 365 365 365 363 362 360 360 357 355 356 355 352
367 368 369 368 367 366 368 368 368 368 367 368 366 367 368 367 369 369 369 368 368 369 370 367 370 370 367 367 367 366 365 363 363 363 361 360 360 358 357 355 355 354
367 368 369 368 366 365 365 366 367 369 369 367 365 365 369 368 368 369 371 370 370 369 370 369 370 370 369 368 368 367 365 363 363 363 362 360 359 358 358 358 356 355
367 368 366 365 365 363 364 365 365 367 369 367 366 364 365 370 370 370 371 372 369 369 369 370 369 369 370 369 368 368 366 364 364 364 363 362 360 359 358 358 356 355
367 366 365 365 363 363 364 364 364 363 366 367 366 364 362 366 370 371 372 372 369 369 369 370 369 370 370 368 368 369 367 365 364 365 364 364 363 362 360 360 358 357
367 367 364 365 365 363 363 362 361 360 362 366 367 364 363 362 367 369 370 372 372 371 370 371 372 371 371 370 368 368 367 366 365 365 364 365 365 364 363 361 360 359
367 367 365 365 366 364 362 361 359 359 358 361 366 366 365 361 362 369 370 371 373 372 371 371 372 371 372 371 370 368 368 368 364 364 364 365 366 365 363 362 361 360
369 369 367 366 367 370 366 363 361 360 361 361 365 367 365 364 361 366 369 370 372 372 372 373 373 372 372 372 371 368 368 368 366 364 365 366 366 365 363 361 361 361
371 371 370 369 367 370 369 366 364 366 366 364 366 367 366 365 365 364 368 370 371 372 372 373 372 372 372 372 371 369 368 367 366 364 364 364 365 364 363 362 361 360
373 372 371 372 370 369 371 370 368 367 365 364 365 365 369 370 369 367 365 368 369 371 373 371 372 373 360 345 350 370 369 366 366 366 365 364 364 363 362 361 360 360
373 372 372 371 372 371 372 371 370 369 370 371 369 368 370 373 369 366 364 366 368 369 370 371 371 371 343 337 339 345 364 369 366 366 367 365 364 364 362 361 361 361
372 373 373 371 372 371 371 372 372 370 370 370 368 367 371 369 368 368 369 366 366 368 369 370 371 350 335 335 336 337 346 369 367 365 365 364 363 363 363 361 360 360
373 373 373 372 372 371 372 372 372 370 369 369 367 369 369 370 371 368 368 368 366 368 367 369 370 344 332 332 334 335 336 351 367 366 363 362 363 363 362 362 361 360
373 373 372 372 373 372 371 371 371 371 370 369 369 370 369 369 369 369 370 370 368 368 369 368 370 341 329 329 331 331 333 342 367 366 365 364 363 364 362 363 363 362
373 373 373 373 373 372 371 371 371 372 370 369 368 367 368 368 368 369 370 370 368 366 365 366 367 335 326 326 327 327 330 336 366 365 366 366 366 366 366 363 364 363
372 373 373 373 372 372 371 370 371 372 370 370 368 366 368 369 370 369 368 368 369 368 365 364 365 329 324 324 324 325 327 351 364 365 365 366 366 367 366 366 365 365
371 371 371 372 372 371 370 369 370 371 371 371 369 366 365 366 368 368 370 368 368 368 367 366 366 339 320 321 322 322 330 357 363 363 363 363 365 366 366 367 366 367
371 370 370 370 371 370 369 369 370 370 371 372 368 366 364 365 367 368 369 369 368 368 367 367 367 342 316 319 320 319 333 359 362 362 362 362 362 365 366 365 365 349
370 370 370 370 370 370 370 369 368 369 371 371 369 368 367 368 367 367 367 369 368 367 353 362 367 345 315 318 317 317 334 361 362 361 360 360 360 361 364 365 365 353
369 371 371 369 369 370 372 370 370 370 370 369 369 367 367 366 365 365 365 366 368 367 367 367 367 369 335 315 315 316 322 359 364 361 359 360 361 361 361 363 363 363

ECMWFNIL_sfc_thetae_054.txt.gz
Theta_e
363 365 364 364 362 362 362 365 366 365 365 364 364 365 365 367 368 367 366 368 370 369 370 370 369 370 369 370 372 371 367 365 364 365 362 358 356 353 349 348 349 349
363 365 365 365 364 363 364 365 367 367 367 367 367 367 369 369 368 368 367 367 369 369 370 370 369 369 369 368 370 369 369 366 365 364 362 359 357 355 351 351 348 350
363 364 366 363 361 363 360 364 367 369 369 368 368 369 369 369 368 368 369 368 368 368 370 370 370 370 369 370 370 369 368 367 364 362 363 359 358 355 354 349 348 350
363 364 363 362 363 363 362 361 363 368 368 368 366 365 365 364 366 367 367 370 368 368 369 370 368 368 370 370 370 368 368 368 366 365 363 362 359 357 355 353 350 349
363 364 364 364 364 365 364 361 359 362 364 365 367 366 365 366 367 366 367 367 369 369 370 370 369 369 371 370 370 367 367 367 367 367 363 361 360 358 356 354 352 349
364 365 366 366 365 365 364 362 360 360 361 361 365 366 366 365 368 365 367 366 366 366 366 369 369 368 370 370 368 367 365 365 366 367 364 361 359 358 355 355 354 351
364 365 365 365 365 365 365 364 363 362 363 363 366 365 366 364 363 365 367 367 365 364 364 367 368 367 368 368 367 366 365 365 365 366 364 361 360 357 355 355 355 352
363 364 365 364 363 364 363 364 365 365 365 365 364 366 367 365 364 363 366 368 368 367 367 368 369 369 367 368 366 365 364 364 364 365 364 362 360 358 356 355 355 354
364 364 364 363 361 361 361 360 363 365 366 365 363 363 366 365 366 364 365 367 368 369 369 368 369 368 367 367 367 366 364 361 361 364 363 362 360 359 357 356 355 354
363 364 363 363 361 363 361 361 360 362 365 364 363 362 363 365 366 366 367 367 367 368 369 368 368 368 366 366 367 367 365 363 362 362 363 362 361 359 358 357 354 354
362 363 363 362 362 361 361 360 359 362 364 363 361 360 362 365 365 368 369 368 366 367 369 369 367 368 367 365 366 367 366 364 363 363 362 362 361 360 360 358 356 354
363 361 360 362 363 359 360 360 360 360 363 365 365 361 362 363 366 366 368 369 368 367 369 370 369 369 368 366 365 366 366 365 364 363 362 363 361 360 360 359 358 356
363 362 362 363 363 361 361 360 358 359 361 362 364 363 362 359 364 366 366 369 370 369 368 369 369 369 368 368 367 367 367 366 364 363 362 362 362 361 360 360 359 358
364 364 363 363 363 364 363 361 360 360 361 364 367 365 362 361 359 364 368 368 370 370 369 369 369 369 369 369 369 368 367 366 365 364 362 361 362 362 361 360 359 359
366 366 365 364 364 365 363 362 362 362 363 364 365 365 364 363 361 359 365 367 368 370 370 369 368 368 368 369 369 368 367 366 366 364 362 361 361 362 362 362 361 359
367 367 366 366 365 365 364 363 363 364 363 363 362 364 365 366 365 363 360 366 366 369 371 370 368 368 357 345 351 366 367 365 366 365 364 362 361 361 361 362 361 361
368 368 368 366 366 366 367 365 364 364 364 363 362 362 364 368 367 365 360 361 366 367 369 370 369 367 344 337 340 345 362 365 364 365 365 363 361 361 361 361 361 361
369 369 369 368 367 366 367 367 366 364 364 364 363 362 363 366 367 366 365 361 364 367 368 369 369 350 337 335 337 338 346 365 365 365 365 363 362 362 362 362 361 361
371 370 369 369 368 367 367 368 367 365 364 364 363 364 364 364 367 367 366 364 363 366 367 369 370 346 334 332 334 335 337 351 365 364 363 363 362 361 361 361 361 360
372 372 370 369 370 369 368 368 368 367 366 366 366 366 365 364 365 367 367 366 365 365 367 368 369 347 330 329 330 332 334 342 365 364 363 363 363 361 360 360 361 360
373 374 372 371 371 371 370 368 369 369 369 367 366 365 365 365 365 366 367 367 367 366 366 368 367 341 327 326 327 328 331 335 363 365 364 364 364 364 363 361 361 362
373 374 374 373 372 371 370 369 369 370 369 368 365 364 366 368 368 367 366 368 369 367 364 364 365 336 326 325 325 326 329 344 359 363 363 364 364 364 364 363 362 362
373 374 374 373 373 371 369 369 369 371 371 371 366 364 364 365 365 365 366 367 367 367 366 364 364 342 322 322 323 324 328 350 358 361 362 362 363 365 365 364 364 363
374 375 374 373 373 372 370 370 370 371 371 371 367 364 362 363 365 365 366 367 366 366 366 366 366 347 318 319 320 321 331 353 358 360 361 361 361 363 365 365 364 350
374 375 375 373 373 373 373 371 370 371 372 373 369 367 364 366 366 366 367 368 366 365 354 361 366 351 317 318 317 319 330 355 360 360 360 360 360 360 363 365 366 356
373 375 375 374 373 374 373 373 373 371 371 371 370 368 366 365 364 365 366 367 367 367 365 365 366 367 341 315 316 316 320 353 361 360 359 360 361 360 360 361 363 365

ECMWFNIL_sfc_thetae_057.txt.gz
Theta_e
354 355 355 355 354 355 356 356 356 355 356 356 357 358 359 359 360 359 360 361 362 361 362 362 362 360 361 361 361 359 360 358 357 357 350 351 347 345 343 342 341 341
354 355 356 356 355 356 356 358 357 356 355 358 357 358 360 361 361 360 359 361 363 362 362 362 361 361 360 360 362 359 359 358 356 360 353 351 348 346 344 342 341 340
354 355 355 355 355 355 355 358 359 357 357 358 360 360 360 362 361 360 359 361 362 362 362 363 361 361 361 360 361 360 358 357 357 358 356 351 349 347 345 344 341 340
354 355 355 356 356 355 355 355 359 359 359 358 359 361 361 363 362 360 360 364 361 362 362 362 362 361 361 361 360 360 360 358 358 358 356 353 351 349 347 345 343 341
354 354 355 356 356 357 356 354 356 360 360 360 360 361 362 361 361 360 360 360 361 361 362 362 362 361 361 361 361 359 360 359 358 357 356 354 352 350 349 347 344 341
354 355 355 356 356 356 355 354 355 358 361 361 360 361 361 361 360 361 360 360 360 361 361 362 361 362 361 360 362 360 360 360 359 358 356 354 353 352 351 349 346 342
354 354 354 356 356 356 356 355 355 355 359 361 362 360 360 359 360 360 359 360 361 361 361 361 361 361 362 361 361 361 360 360 360 359 357 355 354 352 351 349 347 345
354 354 355 356 356 356 356 356 355 355 356 358 360 361 360 358 359 360 360 359 360 360 361 362 362 361 362 362 361 360 360 361 360 359 358 356 354 352 351 350 348 346
355 354 355 355 355 356 356 356 356 354 355 355 357 360 361 359 357 359 360 359 358 359 360 361 362 362 362 362 361 360 360 360 360 359 358 357 355 353 352 350 348 347
355 355 355 355 355 356 356 357 357 356 355 355 356 357 359 360 359 357 358 360 359 358 358 360 362 362 362 362 362 361 360 359 359 359 359 358 357 355 353 351 349 348
355 355 355 355 355 356 356 357 357 357 356 355 356 356 357 359 360 358 356 358 360 359 358 358 360 362 361 361 362 362 360 359 358 357 358 359 358 357 358 353 350 349
355 355 354 355 355 355 356 357 357 357 357 357 357 356 357 358 359 359 357 355 358 361 361 359 360 361 362 361 361 361 361 360 359 357 357 358 358 357 357 355 353 350
355 355 355 355 355 355 355 356 356 356 357 357 358 357 356 357 358 358 359 358 356 358 361 362 361 361 362 361 361 361 361 360 359 357 356 357 358 358 357 357 355 353
355 355 355 355 355 355 355 355 355 355 355 357 358 357 356 356 357 357 358 359 359 358 359 361 362 362 361 361 361 360 361 360 359 358 357 356 357 358 357 357 356 355
355 355 355 356 356 356 355 355 355 355 355 356 357 357 357 356 356 358 357 358 360 360 359 360 361 362 362 362 361 360 360 360 360 359 358 356 356 356 357 357 356 356
356 355 355 355 356 356 356 356 355 355 354 354 357 357 356 356 355 355 358 358 358 360 361 360 360 362 354 342 346 360 359 360 360 360 358 357 356 355 356 356 356 356
356 355 355 354 355 356 356 356 355 354 353 353 355 358 358 357 356 354 355 358 358 359 360 361 361 360 342 335 337 341 356 360 359 360 359 358 357 355 354 354 356 356
357 356 355 354 355 355 356 356 355 354 353 353 354 356 358 358 357 356 355 356 359 359 360 361 362 347 336 333 334 335 342 360 360 360 360 359 358 357 356 355 355 356
359 357 356 355 355 355 356 356 355 354 353 353 353 355 357 358 357 357 356 355 357 359 359 361 362 345 334 332 332 333 333 346 360 360 359 359 359 358 357 356 355 355
360 358 357 357 357 356 356 356 355 354 353 354 355 355 355 356 358 358 357 357 355 356 359 361 361 346 332 329 329 330 332 338 359 359 359 359 359 359 358 357 356 355
361 360 358 358 358 358 357 356 356 355 354 354 355 355 354 354 355 357 358 358 358 356 357 359 362 341 330 327 326 326 329 333 356 359 359 358 359 359 359 358 357 357
362 360 360 359 359 358 357 356 357 356 355 355 355 355 356 355 355 355 357 358 359 358 356 356 361 336 328 326 325 325 327 342 353 357 357 357 357 358 359 359 358 357
362 362 361 360 360 359 358 357 357 357 358 357 355 354 354 355 355 355 356 357 358 359 357 356 357 340 326 324 323 323 327 347 352 355 357 357 357 357 358 359 359 358
363 363 362 361 361 360 360 359 359 359 359 360 357 355 354 355 356 356 357 357 357 359 359 358 358 345 321 321 321 321 330 350 353 354 356 356 357 358 358 358 359 350
365 365 364 363 362 362 362 361 360 360 360 362 361 359 357 357 357 357 357 358 359 359 354 358 360 350 319 317 317 318 329 351 355 355 355 356 357 357 357 358 358 355
365 365 366 365 365 364 364 363 363 362 362 363 362 361 359 358 357 357 357 358 359 359 360 359 360 361 339 314 315 315 320 347 355 355 354 355 357 357 357 357 357 358

ECMWFNIL_sfc_thetae_060.txt.gz
Theta_e
348 348 348 348 348 352 349 348 350 350 349 351 352 354 354 356 357 357 357 358 359 360 360 361 361 360 360 359 358 357 357 356 354 351 348 345 342 341 339 338 336 336
349 349 350 350 349 351 352 351 350 352 351 351 354 355 355 356 356 357 357 357 359 359 360 361 361 360 358 358 357 356 356 356 353 356 348 346 343 342 339 338 338 337
349 349 349 349 349 349 351 353 351 352 353 353 354 356 356 357 356 356 357 357 357 358 359 360 360 360 359 358 357 356 356 355 354 355 350 347 345 343 342 339 338 338
349 350 350 350 351 350 351 353 353 352 352 354 354 356 357 358 357 356 356 361 357 358 358 360 360 360 359 357 357 357 356 355 356 355 353 349 347 345 343 341 340 338
349 350 351 351 352 352 352 352 353 353 352 353 355 356 358 358 357 356 356 357 357 357 358 358 359 359 359 358 356 356 356 355 355 354 354 350 348 346 345 343 341 339
350 351 351 352 352 352 352 351 353 354 354 352 354 357 357 358 358 357 356 356 358 358 358 358 358 359 358 358 356 355 356 355 355 354 353 352 350 348 347 345 343 340
350 351 351 352 352 353 352 352 353 355 355 354 354 355 357 357 358 358 357 357 357 358 358 358 358 358 358 357 356 355 356 357 355 354 353 353 352 349 348 346 344 342
351 351 352 352 351 352 352 352 352 354 356 356 354 355 357 357 357 358 358 357 356 357 358 358 358 358 358 357 356 356 355 357 356 354 353 353 352 350 349 348 346 344
351 351 352 351 351 351 352 352 353 352 355 357 356 355 357 357 357 357 358 357 357 357 357 357 358 358 358 358 356 356 355 355 356 356 354 353 352 351 350 349 347 345
351 351 351 351 351 351 351 352 353 353 353 355 358 358 357 357 358 358 357 357 356 356 356 357 357 358 358 358 357 357 356 356 356 356 355 355 353 353 352 350 348 346
351 351 351 351 351 351 352 353 353 353 353 353 355 357 358 357 357 358 357 357 356 356 356 357 357 358 358 358 358 358 357 357 356 356 356 355 355 354 356 352 350 348
351 351 351 350 351 351 352 352 353 353 353 353 353 354 357 358 357 357 357 357 357 356 356 357 358 358 358 358 358 358 358 357 357 357 357 356 356 356 355 354 352 350
351 352 352 351 351 351 352 352 353 353 353 352 353 353 353 356 358 357 356 356 357 357 356 356 357 358 358 358 358 358 358 358 357 357 357 357 357 357 356 355 354 352
352 353 352 352 352 352 352 352 353 353 353 353 353 352 352 353 355 357 357 356 356 357 357 357 356 356 358 358 359 358 358 358 358 357 357 356 357 357 357 356 355 354
354 354 354 353 353 352 352 352 352 353 353 354 353 352 353 352 353 355 356 356 355 355 356 358 357 356 356 358 358 358 358 358 358 357 357 356 355 356 357 357 356 356
354 354 354 353 353 352 352 352 352 352 353 353 353 353 352 352 352 353 354 355 355 354 354 355 357 358 350 339 343 358 358 358 358 357 357 356 355 354 354 355 356 356
355 354 354 353 353 352 352 352 352 352 352 352 352 353 353 352 352 352 353 354 355 355 354 354 355 356 341 335 335 338 354 358 357 357 357 356 355 354 353 353 355 356
355 354 354 353 353 352 352 352 352 351 351 351 351 351 353 353 352 352 352 353 354 355 355 355 355 342 334 333 333 333 339 357 358 357 357 357 356 355 355 354 353 354
355 354 353 353 353 353 353 352 351 351 350 350 350 351 352 352 352 352 351 352 353 353 354 355 356 341 333 330 331 331 331 342 358 358 357 357 357 356 356 355 354 353
355 354 353 353 353 352 352 352 351 350 350 351 351 351 350 351 352 352 352 351 351 352 353 354 355 342 331 328 328 328 330 334 356 357 357 357 357 357 357 356 355 354
356 355 353 353 353 352 352 352 352 352 351 351 351 350 350 350 351 351 352 352 351 351 352 353 355 338 329 326 325 325 327 330 352 357 357 357 357 357 357 357 357 357
357 355 354 354 353 352 351 351 352 352 351 352 351 351 351 351 352 353 353 353 353 352 351 351 354 335 327 325 324 324 326 339 349 353 355 356 357 357 357 358 358 358
358 357 355 354 353 352 351 351 351 352 352 353 351 351 350 350 350 351 353 354 354 353 352 352 353 340 325 323 322 322 324 343 348 351 354 355 356 357 357 357 358 358
359 359 357 356 354 353 352 352 352 353 353 354 352 351 350 351 351 351 352 354 354 354 355 353 353 343 322 320 320 320 328 346 349 351 352 353 354 356 357 357 357 350
360 360 358 357 356 355 354 353 353 353 353 354 354 353 352 352 352 351 351 352 353 354 352 354 355 346 318 319 318 319 328 347 351 351 352 352 354 354 356 357 357 353
360 360 359 359 357 357 357 356 356 355 354 354 354 354 352 352 352 351 351 352 353 353 353 354 355 356 334 317 317 317 320 346 353 352 351 352 354 354 354 355 356 356

ECMWFNIL_sfc_thetae_063.txt.gz
Theta_e
349 349 347 347 347 347 346 345 346 345 346 349 350 351 352 354 355 356 356 356 356 356 357 358 359 358 359 358 357 357 356 355 355 352 348 345 341 339 338 337 335 334
348 349 349 347 347 349 347 346 346 347 346 348 350 351 353 353 354 355 355 355 356 356 357 357 358 358 357 357 356 356 355 355 354 355 350 345 343 340 339 338 337 336
348 347 347 346 346 347 348 347 347 348 347 347 349 351 352 354 354 354 355 355 355 356 357 357 357 358 358 357 356 355 355 354 354 354 351 348 345 342 341 339 337 336
348 348 347 347 347 346 349 348 347 347 349 347 348 351 353 354 354 354 354 358 355 355 356 357 357 358 358 357 355 355 355 354 355 354 352 349 347 345 343 340 339 337
348 348 347 347 347 347 348 349 348 347 348 349 349 351 353 353 353 353 354 355 355 355 355 356 357 357 357 357 355 354 354 354 354 353 352 350 348 346 345 343 340 338
349 348 348 347 347 347 346 348 350 349 348 349 350 352 352 353 353 353 353 353 355 355 355 355 356 357 357 357 355 355 354 353 353 352 352 351 350 348 347 344 342 340
347 348 348 348 347 348 347 347 349 351 350 350 351 351 353 353 353 353 353 353 354 354 354 354 354 355 357 356 355 354 354 354 353 352 352 352 351 349 347 345 343 342
347 348 348 348 347 347 348 348 348 349 351 351 349 351 353 353 354 354 354 353 353 354 354 354 354 355 356 356 355 354 354 354 354 352 351 351 351 350 349 347 345 343
348 347 348 347 347 347 348 348 349 349 351 351 351 351 353 354 354 355 354 354 353 353 354 354 355 355 355 355 355 354 353 353 354 353 352 351 350 350 350 349 346 344
347 348 347 347 347 348 348 349 350 350 351 352 352 352 351 353 355 355 355 354 353 353 353 354 355 355 355 355 355 354 354 353 353 353 353 352 352 351 351 350 348 346
347 347 347 347 347 348 348 349 350 350 351 352 353 353 352 352 353 354 354 354 354 353 353 353 354 355 355 355 355 355 354 354 354 353 353 353 353 352 354 351 349 348
347 347 347 347 348 348 348 349 350 350 350 351 352 353 353 353 352 353 354 354 354 355 354 354 354 355 355 355 355 356 355 355 354 354 353 353 353 353 353 352 351 350
348 348 348 348 349 349 349 349 349 350 351 350 352 352 353 353 353 353 354 354 354 354 354 354 354 354 354 355 355 355 355 355 354 354 354 353 353 353 354 353 353 352
349 349 349 349 349 350 349 349 350 350 350 351 351 350 351 353 354 354 354 354 354 354 354 354 354 354 354 355 355 355 355 355 355 354 354 354 354 354 354 354 354 354
350 350 350 350 350 349 349 349 350 350 350 350 350 350 351 351 353 355 354 353 354 354 354 354 354 354 354 355 354 355 355 355 355 354 354 353 353 354 354 354 354 354
350 351 350 350 350 349 349 349 349 350 350 350 350 350 350 350 350 352 354 354 353 353 354 354 355 355 348 338 341 355 355 355 355 355 354 354 353 353 353 354 355 355
351 350 351 350 350 350 349 349 349 349 349 349 350 350 350 350 350 349 350 352 353 353 353 353 354 354 339 333 332 336 351 355 355 354 355 355 354 354 353 354 354 355
351 351 350 350 350 350 350 349 349 349 348 349 349 349 350 350 349 349 349 349 351 352 353 353 353 341 334 332 331 330 336 354 355 355 354 354 354 354 354 354 354 354
352 351 351 351 350 350 350 350 349 349 348 348 348 349 350 349 349 349 348 349 349 349 350 352 353 339 332 330 330 329 329 337 353 355 354 354 354 355 355 354 354 354
353 352 351 351 352 351 351 350 349 349 349 349 349 349 349 349 349 349 349 348 349 348 349 350 351 340 331 327 327 327 327 331 349 353 354 354 354 355 355 355 355 354
353 353 352 352 352 352 351 350 350 350 349 349 349 349 348 348 349 349 349 350 349 349 349 349 350 336 328 325 323 323 325 327 345 351 353 354 355 355 355 355 355 355
354 353 353 353 352 352 351 350 350 350 349 350 350 350 350 350 349 350 349 349 350 350 349 348 350 333 327 324 322 321 323 336 343 348 351 353 354 354 355 356 356 356
355 354 353 353 352 352 351 351 350 350 350 351 349 349 349 348 348 349 349 349 350 350 349 349 349 338 325 321 320 320 322 338 343 346 349 351 352 354 355 355 356 356
356 355 354 353 353 351 351 351 352 352 351 352 350 349 348 349 349 349 349 349 349 349 350 349 349 341 325 320 318 318 326 341 343 345 347 349 350 353 354 355 356 350
357 356 355 354 353 352 352 352 351 352 352 352 352 351 350 350 350 349 348 349 349 349 345 348 350 343 326 321 318 316 326 342 346 346 347 348 349 350 352 354 354 352
358 357 356 355 354 354 353 353 353 352 352 351 351 351 351 350 350 349 348 348 349 350 350 350 350 351 343 320 318 315 318 341 346 347 346 347 349 349 350 352 353 354

ECMWFNIL_sfc_thetae_066.txt.gz
Theta_e
350 350 349 348 348 348 348 347 347 347 348 350 351 353 354 355 357 357 357 358 358 358 358 359 360 360 360 361 361 361 360 359 359 358 356 353 351 349 346 343 341 340
350 350 351 350 349 350 349 348 348 348 348 349 351 353 355 356 356 357 357 357 358 358 358 358 359 360 360 360 360 359 359 359 358 359 356 353 352 349 347 346 343 343
350 350 350 349 348 348 348 348 349 348 348 348 351 353 353 356 355 357 357 357 357 357 358 358 359 360 360 360 360 359 358 358 357 359 357 355 353 350 348 345 344 343
350 350 349 349 349 348 349 348 348 348 349 348 348 351 353 355 356 355 356 359 357 357 358 358 358 359 360 360 360 358 359 359 359 359 357 357 355 352 350 348 346 344
350 350 350 350 350 350 350 348 347 347 348 348 349 351 353 354 355 355 355 356 357 356 357 357 358 359 359 359 359 357 358 357 358 358 357 356 356 354 352 349 348 345
351 350 350 350 350 349 348 348 349 348 348 348 349 351 352 354 354 354 355 355 356 356 356 356 357 358 359 359 358 358 358 357 357 357 356 356 356 354 353 351 349 347
350 350 349 350 349 349 348 349 350 350 348 349 351 350 351 352 353 354 354 355 355 356 355 356 356 357 358 359 358 357 357 357 357 356 356 356 356 355 353 352 351 349
350 350 350 350 349 348 348 348 349 350 350 350 349 350 352 352 353 354 354 354 354 355 355 356 356 356 357 358 358 357 357 357 356 356 355 355 356 355 355 353 352 350
350 349 350 349 348 348 347 348 348 349 351 350 349 350 352 352 353 353 354 354 354 354 355 355 356 356 357 357 357 357 356 356 356 356 355 355 354 355 355 355 352 351
349 349 349 349 348 348 347 348 348 349 351 351 351 351 351 353 354 354 354 354 354 354 354 355 355 356 356 356 357 357 357 356 357 356 356 356 355 355 355 354 354 352
348 349 348 348 348 348 348 348 348 349 349 350 351 351 351 352 354 355 354 354 353 353 354 354 355 355 355 356 356 357 357 356 356 357 356 356 356 356 356 355 354 353
348 348 348 348 348 348 348 348 349 349 349 350 351 351 352 352 352 354 354 354 354 354 354 354 355 355 355 356 356 357 357 357 357 357 356 356 356 356 356 356 355 355
347 347 348 348 348 348 349 349 349 349 349 349 351 351 351 351 352 352 354 355 355 355 355 355 355 355 355 356 356 357 357 357 356 356 356 356 356 356 356 356 356 356
347 348 348 348 349 349 349 349 349 349 350 350 351 351 351 351 351 352 353 354 355 355 356 356 356 355 355 356 356 356 357 356 356 356 356 356 356 357 356 356 356 356
348 349 349 349 349 349 349 349 349 350 350 351 351 351 351 352 352 353 352 352 354 354 355 356 356 355 356 356 355 356 357 356 356 356 356 356 356 356 356 356 357 357
349 349 349 349 349 349 349 349 349 350 350 350 350 351 351 352 352 353 353 352 352 353 354 354 355 355 349 338 341 355 356 356 356 356 356 356 356 355 356 356 356 357
349 349 349 348 349 349 349 349 349 350 350 350 350 350 351 351 352 351 352 353 353 353 353 353 354 353 338 332 332 335 351 356 355 356 356 356 356 355 355 356 357 357
349 349 349 349 349 349 349 350 350 350 349 349 349 349 350 351 350 350 351 351 352 353 353 353 354 341 333 330 330 330 335 354 356 356 356 356 356 356 356 356 356 356
350 349 349 349 349 349 350 350 350 349 349 349 349 350 350 350 350 350 350 350 350 351 351 353 354 338 331 329 329 328 328 338 355 356 356 356 356 356 357 357 357 357
350 350 349 350 350 350 350 350 349 349 349 350 350 350 350 349 350 350 350 350 350 350 350 351 352 339 330 327 326 326 326 331 351 354 355 356 356 357 357 357 357 357
351 350 350 350 351 351 350 350 350 350 350 350 350 349 349 349 349 349 350 350 350 350 350 349 350 334 327 324 323 322 324 328 347 352 354 355 356 357 357 357 358 358
352 351 351 351 351 351 350 350 350 350 350 350 350 350 350 351 351 351 350 350 350 350 350 349 351 332 326 324 321 321 323 337 345 349 351 353 354 355 356 357 358 358
353 352 352 351 351 351 350 350 350 350 351 352 350 350 350 350 350 350 351 350 350 351 350 350 350 338 325 321 320 319 323 341 345 347 349 351 352 354 355 356 357 358
354 353 353 352 352 351 351 351 352 352 352 352 351 350 349 350 351 351 351 352 350 350 351 350 351 342 325 319 318 318 327 343 345 347 348 349 351 353 354 355 357 350
355 355 354 353 353 353 353 352 352 352 353 353 352 352 351 352 352 351 351 351 351 351 345 348 351 343 325 320 318 316 326 345 347 347 347 349 350 351 353 354 355 353
356 356 355 354 354 354 354 354 354 354 354 353 353 353 352 352 352 352 351 351 351 351 351 350 350 352 345 320 317 314 318 344 348 347 347 348 350 350 351 353 354 355

ECMWFNIL_sfc_thetae_069.txt.gz
Theta_e
358 358 357 357 357 357 358 358 358 358 360 359 360 361 363 366 368 368 368 369 369 369 369 370 370 369 368 369 369 367 366 366 366 367 366 364 364 364 363 363 362 360
358 358 358 358 358 359 360 360 360 359 361 362 362 363 366 367 367 367 368 368 369 368 369 368 369 369 369 368 369 366 364 364 364 366 364 364 364 364 363 365 363 363
358 357 357 356 356 357 356 359 360 360 360 360 363 365 365 366 366 367 368 368 367 366 368 369 368 369 368 369 370 367 364 364 363 365 365 364 363 363 366 363 363 363
358 358 356 356 356 356 357 358 359 360 360 360 360 361 363 363 365 365 366 367 367 368 368 368 368 367 368 369 369 366 365 364 364 366 364 364 364 364 365 366 364 363
358 358 357 357 357 359 359 358 356 357 358 359 360 362 363 364 364 363 364 365 366 366 367 367 368 367 369 368 367 364 363 362 364 364 362 362 365 364 364 365 365 363
359 359 359 358 358 358 357 356 357 356 357 357 359 360 360 362 362 362 363 362 363 363 363 364 366 366 367 367 366 364 363 362 363 363 362 363 363 365 363 365 366 364
358 359 358 358 358 359 358 357 358 358 357 358 360 359 360 360 361 362 363 363 362 363 362 364 366 366 367 368 366 364 363 364 364 363 362 362 364 365 364 364 364 364
358 358 358 358 357 357 357 357 358 358 359 359 358 359 360 358 360 361 363 362 361 363 364 364 367 368 366 367 365 364 363 362 362 362 362 361 362 363 364 363 363 362
359 358 358 358 357 356 355 356 357 358 359 358 356 357 360 359 359 359 362 363 362 363 365 365 366 366 366 365 365 365 364 364 363 363 362 361 361 363 364 365 363 361
358 358 357 357 356 356 356 356 356 357 358 357 356 356 357 359 360 360 362 364 362 363 364 364 364 364 365 365 365 365 365 365 366 365 364 364 364 364 364 365 363 363
357 357 356 356 356 356 356 356 356 356 357 357 356 356 357 358 360 361 362 362 360 361 362 363 363 364 364 363 364 365 365 364 366 366 366 365 365 366 365 365 365 364
357 356 355 356 356 355 356 356 356 356 356 357 357 356 357 357 359 359 360 361 361 361 362 363 364 364 365 364 362 364 365 364 365 366 365 365 365 365 366 366 364 365
356 356 356 356 357 356 356 356 355 355 355 355 357 357 356 356 357 359 360 360 361 361 361 363 364 364 365 365 364 364 364 365 363 364 364 365 365 364 364 364 365 364
357 357 357 357 357 359 358 357 356 356 357 357 357 357 356 356 356 357 359 360 360 361 362 363 364 364 364 365 365 364 364 364 364 363 363 364 364 365 364 363 364 364
358 359 358 359 358 359 358 357 357 357 357 358 358 357 356 357 358 357 358 359 360 361 362 362 362 362 363 364 363 364 364 362 363 363 363 363 364 363 364 364 364 363
359 359 359 359 359 359 359 358 358 358 357 357 357 357 358 358 359 358 358 358 358 360 361 362 362 362 355 341 346 362 364 362 363 364 364 363 363 363 362 363 363 363
359 359 359 358 359 359 359 359 358 358 358 358 358 358 358 359 358 357 357 357 357 358 359 360 360 360 341 334 334 338 357 363 363 363 365 364 363 363 363 362 363 364
358 358 358 358 358 358 359 359 359 358 358 358 358 357 359 359 358 357 358 357 357 357 357 358 359 345 334 332 332 331 339 360 362 362 362 362 363 361 362 362 363 362
358 357 357 357 358 358 358 359 358 358 358 357 356 358 358 358 358 357 358 358 357 358 357 357 358 340 331 330 331 330 329 342 359 361 360 361 362 362 362 362 363 363
358 357 357 357 358 358 358 358 357 357 357 358 357 358 358 357 357 358 358 359 358 358 359 358 358 342 329 327 327 327 328 333 358 359 360 361 361 362 362 363 363 363
358 357 357 357 358 358 358 357 357 358 357 357 356 356 357 357 356 357 357 358 358 357 358 357 357 337 326 324 323 323 325 330 357 359 359 361 361 362 363 363 363 364
357 357 357 358 358 358 357 357 357 358 357 358 357 356 357 357 358 357 357 357 358 357 356 356 357 333 326 323 322 322 324 344 355 359 359 359 361 362 363 364 365 364
356 356 357 358 358 357 357 356 357 357 358 359 357 356 355 355 357 356 358 357 357 357 357 357 357 340 323 321 320 319 325 351 356 358 359 359 360 361 362 363 364 365
357 357 357 358 358 357 356 357 357 358 358 359 357 355 354 356 357 357 358 358 357 357 357 357 357 345 321 319 318 317 331 353 357 357 358 359 359 361 362 363 364 356
358 358 358 358 358 358 358 357 357 358 358 359 358 357 356 358 358 357 357 359 358 357 349 353 357 348 322 319 317 315 330 355 357 356 356 357 357 358 361 362 363 359
359 360 360 358 358 359 360 359 360 359 359 359 358 358 357 357 357 358 357 357 358 358 357 356 356 358 351 318 316 314 319 352 357 355 354 355 357 356 357 360 361 363

ECMWFNIL_sfc_thetae_072.txt.gz
Theta_e
361 362 361 361 362 362 362 362 362 362 362 359 358 361 359 364 367 366 366 368 368 368 369 370 370 370 368 368 370 368 367 367 366 365 366 365 365 364 361 361 362 361
360 362 362 363 363 364 364 364 365 364 364 364 360 360 366 365 366 368 367 367 367 368 369 367 370 370 370 367 369 367 366 367 367 366 367 368 366 365 364 365 363 364
360 361 360 361 360 364 362 364 367 365 363 364 364 363 365 367 367 370 369 367 365 364 366 368 368 369 368 368 369 367 365 366 365 365 367 368 365 365 367 363 364 364
361 361 360 360 362 364 364 364 365 366 364 363 363 362 361 362 367 367 370 370 368 367 366 367 367 365 368 368 369 365 366 366 364 367 366 366 367 365 365 367 366 363
361 361 361 361 363 366 367 364 363 363 363 361 363 364 365 366 367 367 368 369 370 368 367 367 368 366 368 368 368 366 365 363 364 365 364 364 367 367 365 365 367 365
363 363 363 362 363 364 363 364 363 362 363 360 362 363 364 366 366 366 366 365 366 365 362 363 365 365 365 368 368 367 364 361 362 365 362 364 364 365 365 366 367 366
361 362 363 363 363 363 364 365 364 364 363 363 364 363 364 365 366 366 365 366 364 365 362 363 365 364 366 367 368 367 366 367 365 365 363 362 365 365 365 367 368 367
363 362 363 364 363 364 363 364 364 365 365 365 362 365 365 364 366 366 366 365 365 365 367 365 367 369 364 366 366 367 367 365 365 365 364 363 364 364 366 365 368 369
364 363 364 364 363 362 361 362 364 365 365 364 362 362 366 365 364 365 367 368 366 366 368 367 368 369 367 365 366 368 368 364 364 365 365 363 362 363 365 367 366 368
365 365 364 364 362 361 361 362 362 363 364 363 363 361 362 366 365 364 366 368 367 367 368 369 368 368 367 367 366 368 368 367 366 366 366 366 364 364 364 365 365 367
364 363 363 363 362 361 361 361 361 361 364 363 363 361 361 364 365 366 366 367 366 367 367 368 368 368 368 365 365 367 367 366 367 367 367 367 366 366 365 366 366 365
365 363 362 363 362 361 361 361 360 361 362 363 363 362 361 360 364 364 364 366 368 368 368 369 370 369 369 368 363 365 367 366 366 367 366 368 368 365 367 368 366 367
364 363 363 362 363 362 361 361 361 360 361 362 363 362 361 360 361 364 365 366 368 368 367 369 370 369 370 370 367 365 365 367 364 365 366 367 367 365 364 365 367 367
365 366 363 364 365 366 364 362 362 361 362 363 364 363 360 360 360 361 364 365 366 367 368 368 370 370 371 371 370 367 365 366 367 364 363 365 365 366 364 363 364 365
367 367 366 366 366 366 365 364 363 364 364 364 365 364 361 361 361 361 363 365 366 366 367 367 366 368 369 369 369 369 367 364 366 366 364 362 363 363 365 365 362 361
367 368 367 367 366 366 367 366 365 365 364 364 364 364 365 364 364 363 362 363 364 366 367 366 365 367 362 348 354 368 369 364 365 367 367 365 364 363 361 362 363 363
368 367 367 366 367 367 368 367 366 366 366 365 365 366 366 367 365 363 361 362 363 364 365 365 365 364 346 336 338 344 365 369 366 367 369 368 366 367 365 362 362 364
367 367 367 367 367 367 368 368 367 367 366 366 365 365 366 366 364 364 365 363 362 364 364 365 366 351 335 333 335 336 346 365 366 366 366 367 368 365 365 365 363 362
368 367 366 367 368 368 368 368 367 366 366 366 364 366 367 366 366 365 365 364 363 364 363 364 365 345 331 331 333 332 334 348 361 364 363 364 366 367 367 367 367 366
368 367 367 367 368 368 368 368 367 366 367 366 366 367 366 366 365 365 365 366 365 364 364 364 364 345 329 328 329 329 330 339 362 361 362 362 364 366 366 368 368 367
367 367 367 367 368 368 368 367 366 367 367 366 364 364 365 365 365 365 366 366 365 364 363 362 361 337 326 325 325 325 327 334 361 361 361 362 364 365 368 368 369 369
366 366 367 367 367 367 366 366 366 367 366 366 365 363 365 365 366 365 365 365 365 365 362 362 362 335 324 323 322 323 326 350 360 361 362 362 363 365 366 369 369 369
365 364 365 366 366 365 365 365 365 366 366 367 364 363 362 362 364 363 365 364 364 365 364 363 363 343 322 320 320 320 329 357 360 361 361 362 363 364 366 367 369 371
365 365 365 365 366 365 364 364 365 366 366 366 364 362 359 361 363 364 365 365 363 363 363 363 364 347 320 318 318 318 335 359 361 360 361 362 363 365 366 367 368 365
364 364 365 364 365 365 365 364 365 365 365 366 364 364 362 363 363 363 363 364 363 362 356 360 364 350 319 319 317 316 336 361 361 361 360 361 362 363 366 366 367 365
364 365 365 364 365 365 366 365 365 364 365 364 364 364 362 361 361 362 362 362 363 362 362 361 361 365 346 317 316 314 322 359 362 360 360 361 362 362 363 366 366 368

ECMWFNIL_sfc_thetae_075.txt.gz
Theta_e
361 361 360 361 362 363 362 362 361 360 360 357 358 361 357 360 362 362 363 364 366 367 367 369 371 370 367 369 370 369 367 366 365 365 365 364 363 363 361 360 360 360
362 362 362 362 363 366 365 363 363 361 361 361 359 359 362 363 363 362 363 363 366 366 368 367 369 370 369 366 368 367 367 368 366 364 364 365 365 364 362 362 361 362
362 362 361 361 360 364 363 365 365 362 361 361 361 360 360 361 364 366 365 364 364 363 366 367 368 370 368 367 368 367 366 368 367 363 365 366 363 363 365 360 361 362
362 363 361 361 363 363 365 364 364 365 362 362 360 358 358 358 362 365 366 367 365 363 363 366 366 365 368 367 368 366 365 367 367 367 365 367 368 365 363 364 362 360
362 362 362 363 363 365 366 364 362 363 361 361 362 361 360 362 362 361 364 365 366 363 364 364 365 364 366 367 368 366 364 364 366 368 367 366 368 367 365 363 363 361
363 364 365 364 364 365 365 364 364 363 363 358 361 360 360 360 361 361 362 364 363 361 358 361 364 364 364 366 367 366 363 360 360 366 365 365 364 363 362 363 364 362
361 363 363 363 364 365 365 366 365 365 363 360 363 360 361 360 360 363 363 363 361 362 358 360 364 363 364 365 367 366 365 364 363 364 365 364 365 364 362 363 365 364
362 363 363 364 363 364 365 365 365 364 365 364 359 361 362 361 362 361 362 362 361 360 362 359 364 366 361 362 365 365 365 363 362 363 365 365 365 364 365 364 364 365
363 364 364 364 362 364 363 363 364 366 366 364 360 360 362 362 363 362 364 364 363 362 364 362 365 363 363 362 363 365 365 362 361 363 364 364 363 363 363 365 364 365
364 364 362 362 362 362 362 362 363 366 365 364 361 359 360 363 364 364 365 366 363 363 364 364 364 364 364 362 362 364 365 365 364 363 364 363 361 361 362 363 363 364
363 362 361 362 361 360 361 361 362 363 365 364 362 359 359 362 363 365 367 367 363 363 365 366 365 366 366 361 361 364 366 365 365 365 365 365 364 364 364 364 364 363
363 361 361 361 361 360 360 362 361 360 363 364 363 360 359 361 363 363 365 367 368 366 366 368 368 367 367 365 360 361 364 364 364 364 363 366 365 364 364 364 363 364
363 361 361 362 362 360 361 362 360 358 359 362 363 360 358 358 362 364 364 366 368 368 367 369 369 368 369 368 364 362 363 364 361 362 364 364 366 365 363 363 363 362
365 364 361 363 364 365 363 361 359 358 359 361 363 361 358 358 359 362 363 364 367 368 369 370 371 369 371 371 368 364 361 364 364 361 361 363 363 365 361 357 358 360
368 366 364 365 365 366 363 362 361 361 361 362 365 362 359 358 358 359 363 364 366 367 368 367 368 368 369 369 369 366 363 361 364 363 361 361 362 360 360 359 356 355
369 370 367 367 366 366 367 365 363 363 360 360 363 363 364 362 361 359 360 363 364 366 367 366 366 369 364 353 358 368 365 360 363 365 364 361 362 361 357 357 357 355
370 370 368 368 368 368 368 368 368 366 367 367 366 366 367 368 362 358 357 360 363 365 366 366 364 365 350 340 342 350 365 364 361 364 367 364 360 363 361 356 356 358
370 370 369 369 369 369 370 369 368 367 368 367 364 365 368 365 362 361 363 359 360 363 364 365 365 354 337 337 339 339 352 367 361 360 362 363 363 359 360 360 356 353
372 371 370 369 370 371 371 370 369 368 366 365 363 366 367 367 367 362 362 361 359 363 361 364 365 343 333 334 336 336 337 355 361 360 358 361 363 362 359 361 362 358
372 372 370 370 371 372 372 370 369 368 368 367 367 368 368 367 364 365 365 367 363 363 366 363 365 341 331 330 333 333 335 343 365 360 360 359 362 363 361 361 363 364
371 372 371 372 372 372 372 371 370 370 369 368 366 366 367 368 366 366 366 366 364 362 363 362 360 333 328 327 328 329 332 339 364 360 360 362 362 364 367 365 366 365
370 370 371 372 372 372 371 370 370 370 370 369 367 365 367 368 369 368 367 367 366 364 361 361 360 326 327 326 325 327 329 354 362 361 361 361 362 364 365 369 369 369
370 369 371 371 372 371 370 370 370 370 370 371 367 365 364 365 368 366 369 367 367 367 363 362 362 336 324 322 323 323 332 360 362 362 362 362 362 364 365 366 368 370
371 371 371 370 371 370 370 370 370 371 370 371 368 365 360 363 366 366 367 368 366 366 365 364 362 346 319 320 321 320 339 362 363 362 363 363 363 365 366 367 369 369
371 371 371 370 370 370 370 370 370 371 370 371 368 366 364 363 364 364 365 367 366 366 362 362 363 348 317 319 318 318 340 365 364 363 362 362 362 363 366 366 367 367
371 372 372 370 371 371 372 371 371 370 370 369 367 367 364 361 360 361 362 362 363 364 364 365 365 363 335 316 316 316 326 365 365 362 361 362 364 364 365 366 366 368

ECMWFNIL_sfc_thetae_078.txt.gz
Theta_e
360 360 359 359 359 357 358 361 360 360 361 359 361 359 358 361 365 366 364 366 369 369 370 373 373 372 370 375 374 372 375 372 374 371 369 371 369 363 360 362 365 368
361 361 362 362 362 362 363 363 364 362 363 363 362 364 364 364 361 368 364 366 368 367 371 369 373 373 372 370 373 372 372 372 371 366 370 369 371 369 361 365 361 369
361 362 362 360 359 362 357 362 365 364 363 361 363 367 364 363 361 366 367 366 365 364 370 370 371 373 371 372 373 371 370 372 369 366 371 370 371 368 368 359 361 362
361 361 359 358 360 360 361 362 364 365 361 360 359 360 362 358 362 362 367 368 366 367 367 368 368 368 370 370 371 371 370 371 370 372 372 371 371 370 367 368 363 365
360 361 360 359 360 363 364 363 360 362 359 360 358 359 363 365 364 362 364 365 368 366 367 368 369 368 370 370 370 370 368 368 370 372 371 371 372 370 366 367 370 364
361 362 362 361 362 364 363 362 362 360 360 358 360 359 359 366 362 362 362 362 363 361 361 363 365 365 366 369 369 368 366 363 365 369 367 368 366 367 364 368 368 366
360 361 360 361 360 363 363 363 364 363 360 359 362 359 358 359 362 362 364 363 361 362 360 361 365 364 364 367 368 368 369 368 369 367 366 366 368 367 364 367 369 367
359 360 361 361 359 360 362 363 363 363 363 362 360 362 360 356 360 361 364 364 362 362 362 362 366 366 363 365 366 367 366 364 364 369 366 366 367 365 366 365 368 367
360 360 360 360 358 359 359 360 362 362 364 362 357 358 361 358 359 358 363 364 363 363 363 363 365 365 363 364 365 366 365 363 362 363 365 364 364 365 364 365 365 367
360 360 359 358 358 359 359 361 362 361 363 362 357 357 358 361 360 359 363 365 363 364 363 362 365 363 362 363 365 366 365 365 364 363 362 363 364 364 363 363 363 363
358 359 359 358 357 358 359 360 362 362 361 360 358 356 357 359 361 361 363 365 362 363 363 361 364 363 362 361 363 364 365 364 364 365 363 363 364 365 366 364 363 362
359 359 358 358 358 358 359 359 360 361 360 361 359 356 358 357 360 360 361 363 362 362 364 363 364 364 364 362 360 361 364 364 365 365 362 363 364 364 364 364 362 363
358 358 359 359 359 359 359 360 359 359 360 359 360 357 355 356 357 360 362 363 363 362 362 364 364 364 365 365 363 361 362 364 362 364 363 362 363 363 362 362 362 363
361 360 359 361 361 361 362 361 359 359 362 363 363 359 355 356 356 358 362 363 363 363 362 365 365 364 366 367 365 363 362 363 363 362 361 362 361 363 363 361 362 362
363 363 362 363 362 363 362 361 360 361 363 364 363 360 356 355 358 358 359 361 364 364 363 364 365 365 365 366 365 364 362 361 362 362 361 360 361 360 362 363 362 360
365 364 363 364 363 363 363 362 362 362 361 363 363 362 360 357 357 360 359 360 363 365 365 364 365 365 360 351 355 363 362 358 361 362 361 360 361 361 360 361 360 359
366 364 364 363 364 364 364 364 363 363 362 363 364 363 361 361 358 360 359 359 360 363 363 364 365 364 349 339 342 349 361 361 360 362 363 363 361 361 360 358 358 359
366 366 364 364 365 365 364 365 365 364 363 363 363 362 363 362 359 359 360 361 360 362 362 363 364 355 337 336 339 340 351 362 360 361 362 363 362 359 360 360 359 356
367 366 365 364 365 366 366 365 365 365 363 362 362 363 364 363 361 359 359 361 361 361 361 363 363 345 334 334 336 336 338 355 360 359 357 360 362 361 359 360 360 359
369 367 366 365 366 367 367 365 364 364 364 363 362 365 364 364 362 361 360 361 362 363 362 362 363 341 331 331 333 333 336 344 363 361 359 358 361 363 360 360 361 360
370 368 367 366 367 367 367 366 364 365 365 364 361 363 364 364 362 361 361 362 361 363 364 361 361 333 328 328 329 330 333 340 363 363 360 359 361 363 364 362 362 362
370 369 369 367 367 367 367 366 365 365 365 364 360 359 362 366 366 363 362 362 361 360 358 361 360 328 327 327 327 328 331 350 361 364 363 364 363 362 364 366 365 364
370 369 369 368 367 366 366 366 365 365 366 366 361 359 359 362 363 362 364 361 360 360 359 360 364 332 324 324 325 325 332 356 361 362 362 361 362 367 368 368 368 367
370 370 370 369 368 366 366 366 367 365 364 366 363 360 359 361 363 364 364 362 360 360 358 361 364 339 319 321 323 322 338 359 361 361 360 359 359 361 364 367 368 371
370 370 371 369 370 369 368 369 367 365 364 366 363 362 362 365 365 364 362 363 361 361 358 360 360 346 316 321 319 319 336 360 362 361 359 359 358 358 360 361 364 366
369 370 370 369 370 371 371 371 370 366 366 366 365 362 360 361 362 364 363 362 362 362 363 363 360 361 331 318 318 318 325 360 364 361 358 359 360 360 359 360 361 362

ECMWFNIL_sfc_thetae_081.txt.gz
Theta_e
349 349 347 347 348 350 348 346 347 348 352 351 351 351 352 354 354 355 361 361 361 360 363 360 363 363 363 363 363 363 369 358 359 360 360 361 359 359 359 355 353 350
349 350 351 348 349 350 352 349 349 347 352 353 351 350 353 354 355 354 359 360 361 360 362 363 362 362 362 362 362 360 360 362 360 364 358 360 359 359 358 357 356 354
349 350 349 347 347 348 352 352 352 349 351 354 354 352 352 355 353 357 358 359 360 360 361 363 363 363 363 362 362 362 360 359 357 360 359 357 358 358 358 359 355 355
350 349 350 349 348 348 350 354 354 353 352 354 355 356 353 354 352 357 357 364 358 358 361 362 363 364 363 363 362 361 362 361 361 360 360 361 360 359 357 356 357 355
350 350 350 350 350 351 349 352 355 354 354 354 356 357 356 353 352 351 357 359 358 358 360 361 363 363 363 362 363 360 361 361 362 361 359 359 359 359 359 359 357 357
352 351 351 350 351 351 350 350 355 356 355 355 355 357 357 354 353 351 357 358 358 358 360 360 361 362 363 362 362 361 360 361 361 361 359 359 360 361 361 358 356 357
352 352 352 352 352 353 352 351 354 357 357 356 355 354 357 355 354 352 354 357 358 359 359 359 360 361 362 362 361 360 360 359 358 360 358 358 359 358 360 358 357 355
353 354 354 353 352 353 354 353 354 356 357 356 354 353 354 356 354 354 354 356 357 358 358 359 359 359 361 361 360 359 359 361 359 359 358 357 358 357 358 360 358 355
354 353 354 353 352 353 354 354 355 356 357 355 354 353 352 354 356 355 354 356 356 357 356 357 358 358 359 359 359 359 358 359 359 359 358 357 357 357 357 357 356 356
353 353 353 353 352 353 354 355 356 357 358 356 355 355 353 352 356 356 356 355 355 356 356 356 357 358 358 358 359 359 359 358 358 357 358 357 358 358 358 357 356 355
354 353 352 353 352 353 354 356 357 357 358 356 355 355 354 352 354 355 356 356 356 355 356 355 356 358 357 357 358 359 359 359 358 356 356 357 358 358 364 358 357 356
354 353 352 352 353 353 354 356 357 358 358 358 356 354 355 354 352 353 356 357 356 357 356 356 357 358 357 356 357 359 359 359 359 358 356 356 357 358 360 359 358 357
355 353 353 353 353 353 354 355 356 357 357 357 358 355 354 354 352 352 354 357 357 357 357 356 356 357 357 356 356 357 358 358 358 358 358 356 356 358 359 360 359 358
355 355 354 353 353 354 354 355 356 357 357 357 358 355 353 353 353 352 352 356 357 357 358 357 355 357 356 356 355 356 357 358 358 357 357 357 356 357 358 359 359 358
356 355 355 354 354 354 354 354 355 357 358 357 357 355 354 353 354 354 352 353 356 357 357 358 355 356 357 356 355 355 356 357 357 357 357 356 356 356 357 357 358 358
356 355 355 354 354 353 354 355 355 356 357 356 356 355 353 353 353 354 354 353 354 355 356 357 357 356 355 347 349 356 355 356 357 357 357 356 356 355 355 357 358 358
356 355 354 354 354 354 354 355 355 356 356 356 356 355 354 352 352 352 354 355 355 355 354 356 358 357 346 338 340 345 355 355 355 355 356 356 355 354 353 354 356 357
356 355 354 354 355 354 354 355 355 355 355 356 356 355 355 353 351 352 353 354 356 356 355 355 356 350 337 335 337 338 347 356 354 355 356 355 354 354 354 354 354 356
356 355 354 354 355 355 355 355 355 355 354 355 356 356 356 354 351 352 353 354 355 356 355 356 356 345 334 333 334 335 337 351 355 354 354 355 354 354 354 354 354 354
357 356 355 355 356 356 355 355 355 355 354 355 357 357 355 354 353 351 353 353 354 356 357 358 357 345 331 330 331 332 334 341 355 354 353 355 355 355 355 354 354 353
358 357 356 356 356 356 356 355 354 355 355 355 356 356 355 354 353 351 352 354 355 356 357 358 360 339 328 328 327 328 331 337 354 355 353 352 354 356 356 355 354 355
359 357 357 356 356 357 356 355 355 355 355 355 355 357 357 356 355 353 352 353 355 356 356 357 359 333 327 326 326 326 330 344 353 354 353 352 352 354 356 357 356 355
360 358 357 356 356 356 356 356 355 355 356 357 355 355 356 355 354 354 353 353 353 356 356 356 357 335 325 324 324 325 329 348 352 354 354 354 355 354 355 357 357 356
361 360 358 357 356 356 357 357 357 356 356 358 356 354 355 356 356 355 355 354 352 353 356 356 356 339 321 322 322 322 333 350 352 354 354 354 354 355 356 358 361 367
362 361 360 359 357 357 358 358 357 357 357 358 358 355 354 357 357 356 355 355 354 354 354 355 356 343 318 321 320 320 332 351 353 354 353 354 354 353 354 354 354 362
363 362 361 360 359 358 358 359 359 358 357 357 357 357 354 355 357 357 355 355 356 355 355 354 353 354 331 318 318 318 323 351 354 353 352 353 354 353 352 351 352 352

ECMWFNIL_sfc_thetae_084.txt.gz
Theta_e
341 342 342 345 341 341 341 343 344 344 347 347 346 345 344 345 353 355 357 358 358 357 358 357 359 357 356 359 358 357 358 356 358 356 355 356 355 354 355 353 351 348
342 342 344 345 345 343 341 343 344 346 347 348 347 346 346 346 350 355 356 358 358 357 358 358 358 358 355 358 358 357 356 355 355 360 356 356 356 355 354 353 352 351
344 342 342 342 344 344 343 342 343 345 348 349 348 347 347 349 348 353 355 357 357 357 358 359 357 358 358 357 357 357 357 356 354 357 356 355 356 355 355 355 354 352
345 343 343 342 344 345 345 344 342 343 346 349 348 349 349 351 350 350 353 361 356 357 357 359 357 358 358 358 358 356 356 356 356 356 356 355 356 355 355 353 354 353
346 344 344 344 343 345 347 345 343 342 342 348 350 349 350 350 351 350 351 356 356 356 356 358 358 358 358 358 358 356 357 356 357 355 355 354 355 355 354 354 352 353
348 346 346 345 344 343 345 346 345 344 343 343 348 351 349 350 351 351 351 352 356 356 356 357 358 358 358 358 358 356 357 356 357 356 354 354 355 356 356 355 354 353
348 348 346 346 345 344 344 346 347 347 345 344 347 350 351 348 349 349 352 353 354 356 355 356 357 358 359 358 358 356 356 357 356 356 355 354 355 355 356 355 354 352
349 349 348 347 346 345 344 344 347 349 348 347 346 348 352 350 348 348 349 353 354 354 355 356 356 357 359 358 358 357 356 358 357 356 355 354 354 354 355 356 354 352
350 349 348 347 346 345 345 345 345 348 351 349 348 348 352 352 351 349 348 349 353 354 354 355 356 357 358 359 358 357 356 357 357 356 355 354 353 354 355 355 354 353
349 349 348 347 346 346 345 345 345 346 351 351 350 350 350 353 353 351 350 348 350 353 354 354 355 356 358 359 358 358 357 356 356 356 356 355 354 354 354 354 354 353
349 350 349 348 347 346 346 346 346 346 348 352 352 351 351 351 353 353 351 349 349 352 353 354 355 356 356 358 358 359 358 357 356 356 356 356 355 355 360 354 354 353
350 350 349 349 348 347 347 347 347 347 347 351 353 352 352 351 351 353 353 350 350 351 353 354 355 356 356 356 358 358 358 357 356 356 356 356 356 355 356 356 354 354
351 350 350 350 350 349 349 348 348 349 349 349 353 353 352 351 350 351 353 352 351 351 352 354 354 355 356 356 356 357 357 356 356 356 355 355 355 356 356 356 356 356
353 352 351 351 351 351 350 350 350 350 350 351 353 352 352 352 351 350 351 353 353 352 352 353 354 354 355 355 355 355 356 356 356 355 355 354 354 354 356 356 356 356
355 354 354 352 352 351 350 350 350 351 352 352 353 353 354 353 353 351 350 351 353 353 353 354 353 354 354 355 354 354 355 355 356 355 355 354 354 353 354 355 356 357
356 355 354 353 352 351 350 350 350 351 352 352 353 353 353 353 353 352 350 350 351 353 353 354 354 354 352 344 347 354 354 355 356 355 355 354 354 353 353 354 355 356
356 355 355 353 352 351 351 350 350 351 351 352 353 354 354 353 353 351 351 350 350 352 353 354 354 354 343 336 337 342 352 353 354 354 355 354 354 353 352 353 354 355
356 355 354 354 353 351 351 350 350 350 351 351 353 353 354 354 352 351 351 350 350 351 353 354 354 347 335 333 335 335 343 354 353 353 354 354 354 353 353 353 353 354
356 355 354 354 353 352 351 351 350 350 350 351 352 353 354 353 352 351 350 351 350 349 351 353 354 344 334 331 332 333 334 346 353 352 352 353 353 353 353 353 352 352
357 355 354 354 353 353 352 351 350 350 350 351 353 354 353 352 352 351 350 350 350 350 350 352 353 344 332 328 329 330 332 338 352 352 352 352 353 353 353 353 353 352
357 356 355 354 353 353 352 351 350 350 351 351 352 353 353 352 352 350 350 350 351 351 350 351 352 339 328 326 325 326 329 335 351 353 352 351 352 353 353 353 353 353
357 356 355 354 353 353 352 351 351 350 350 352 352 353 354 354 353 352 350 350 350 351 351 350 352 333 327 325 324 324 328 341 348 351 351 351 350 352 353 353 353 353
358 357 355 354 354 352 352 351 351 351 351 353 352 352 353 353 353 352 352 350 350 351 351 351 352 338 325 322 322 323 327 344 348 350 351 351 350 350 352 353 354 353
359 358 356 355 354 352 352 352 353 353 352 353 352 352 352 353 354 353 353 352 351 351 351 351 352 342 322 321 321 321 331 345 348 349 350 351 351 351 351 351 354 362
360 358 357 356 354 354 353 353 353 353 353 353 353 353 353 354 355 354 353 352 352 352 353 351 352 344 321 321 320 319 330 347 349 349 349 350 351 351 351 352 351 358
360 359 358 357 355 355 355 354 355 354 353 353 353 353 353 353 354 354 353 353 352 352 353 353 353 354 338 319 319 318 322 347 350 349 349 350 351 351 351 351 352 353

ECMWFNIL_sfc_thetae_087.txt.gz
Theta_e
342 341 340 339 337 338 338 339 341 342 343 343 342 343 344 345 346 349 353 355 356 356 356 356 356 356 357 354 354 354 355 354 355 355 353 352 350 349 351 348 345 343
342 342 343 341 340 340 339 340 340 341 342 343 344 343 344 343 344 348 351 353 355 356 356 356 355 355 354 353 353 353 352 354 354 358 354 351 352 349 351 348 348 346
342 341 341 340 340 339 338 340 341 341 342 344 345 344 344 345 343 346 350 353 354 355 355 355 355 355 355 353 353 354 353 352 353 354 354 352 352 351 351 351 348 348
342 341 341 341 341 341 339 339 341 342 342 343 344 346 346 346 344 345 349 357 353 354 354 355 355 355 355 353 353 353 354 353 354 353 354 353 353 351 352 349 350 350
343 341 340 340 341 342 341 338 339 341 342 343 345 346 347 345 344 344 347 351 353 354 354 354 355 355 355 354 353 353 353 353 353 352 352 352 352 352 352 350 348 348
345 344 342 340 340 341 341 340 339 340 342 344 345 347 346 346 345 345 346 349 353 354 354 354 355 355 355 355 354 353 353 353 353 352 351 351 352 352 354 350 348 348
343 344 343 341 340 340 341 342 341 341 341 343 346 347 347 346 346 346 345 348 351 353 353 353 354 355 355 355 354 353 352 352 351 352 351 351 352 352 352 351 350 348
343 344 344 343 341 339 340 340 342 343 341 341 341 346 347 347 346 347 347 347 348 352 353 353 353 354 355 354 354 353 352 354 353 352 351 350 349 350 352 353 352 349
344 343 344 343 341 341 340 340 341 342 344 342 340 340 346 347 347 347 347 347 347 349 351 352 353 353 354 355 354 354 353 353 354 352 352 351 350 351 351 351 350 351
345 345 344 343 342 342 341 341 341 341 344 344 343 341 341 346 347 346 346 346 348 349 350 351 352 353 354 355 355 354 354 353 353 353 353 352 352 351 351 351 352 351
346 346 345 344 344 343 342 342 342 341 343 344 345 344 343 343 346 347 345 344 346 348 349 350 351 352 353 354 355 355 355 355 354 354 353 353 353 352 356 351 351 351
346 346 346 345 345 345 344 343 343 343 342 344 346 345 345 344 344 346 348 345 345 345 348 350 351 352 353 353 355 355 355 355 355 354 354 354 353 353 353 353 352 352
347 347 347 347 347 346 346 345 344 344 343 342 345 346 347 346 346 346 348 348 347 346 346 348 350 352 352 353 354 355 355 355 355 354 354 354 354 354 354 353 353 353
348 348 348 348 348 348 347 346 345 344 344 344 344 344 346 347 347 346 347 349 349 348 347 348 349 350 352 352 353 354 355 355 355 354 354 353 353 353 354 354 354 354
349 349 349 349 349 348 347 347 346 345 345 344 344 344 346 347 348 348 347 347 349 349 349 349 349 350 352 352 352 353 354 354 355 354 354 353 353 353 353 353 354 354
349 350 349 349 349 348 348 347 347 346 345 345 344 345 345 346 347 348 348 347 348 349 349 350 349 350 350 343 345 353 353 354 354 354 354 354 353 352 352 352 353 353
350 350 350 349 349 349 348 348 348 347 346 345 345 345 345 346 347 347 348 348 347 348 349 350 350 350 341 335 336 341 352 353 352 353 353 353 353 352 351 352 352 352
351 351 351 350 350 349 349 349 349 348 347 346 346 346 347 347 347 347 348 348 348 348 348 350 351 344 334 332 333 334 342 353 352 352 353 352 353 352 352 352 351 352
352 352 352 351 351 351 350 350 349 348 347 347 347 348 348 348 348 348 348 349 349 347 347 349 350 341 332 330 331 331 333 345 352 352 351 352 352 352 352 352 351 351
353 353 353 353 353 352 351 350 349 348 348 348 348 349 348 348 349 349 349 349 349 348 348 348 349 341 331 328 328 329 330 337 351 351 351 351 351 352 352 352 351 350
354 354 353 353 353 353 352 351 350 349 349 349 349 348 348 348 349 349 349 350 350 350 348 348 349 337 329 326 325 325 328 333 349 352 351 350 351 352 352 352 352 352
355 354 354 354 353 353 352 351 350 350 349 349 349 349 349 350 350 350 350 350 350 350 349 348 350 332 328 325 323 323 326 338 345 349 350 350 350 350 351 352 352 352
353 355 354 354 354 353 352 352 351 350 350 350 349 348 348 348 349 350 351 351 350 350 349 349 349 337 325 323 322 322 325 340 344 347 348 349 349 350 350 351 352 352
350 350 354 355 354 353 353 352 352 352 351 351 349 348 348 349 349 350 351 351 350 350 350 349 349 341 323 320 320 320 329 341 344 345 347 348 349 350 350 350 352 360
351 351 351 354 355 354 354 353 352 352 352 352 351 350 349 350 350 350 350 351 351 351 351 349 349 343 323 320 319 318 328 343 345 345 345 346 348 348 349 350 349 355
354 352 354 356 356 355 355 354 354 353 352 351 351 351 350 350 350 350 350 351 352 351 351 350 349 350 341 319 317 316 320 344 347 346 345 346 347 347 348 348 349 349

ECMWFNIL_sfc_thetae_090.txt.gz
Theta_e
344 343 341 340 339 339 340 343 345 346 346 346 346 347 348 350 352 353 356 357 358 359 360 360 360 360 360 360 361 360 360 358 359 359 359 358 356 354 354 355 352 352
344 343 345 342 341 342 340 342 344 346 346 346 347 347 348 350 350 351 353 355 358 359 359 359 359 360 359 359 358 358 358 358 358 360 358 357 357 355 355 356 355 354
344 343 343 341 339 339 339 341 343 345 346 346 347 347 346 349 348 349 351 354 355 357 358 359 359 359 359 358 358 358 357 356 357 358 360 358 357 357 357 356 355 355
344 344 343 342 342 340 340 340 341 343 344 345 345 347 347 348 347 347 349 356 354 356 357 358 358 358 359 358 358 358 357 357 358 358 359 359 359 357 357 357 357 356
343 343 343 343 343 343 341 340 340 341 342 343 345 347 349 348 347 346 347 350 354 354 356 357 357 358 359 358 358 357 357 357 358 358 357 357 358 359 357 357 357 356
344 344 344 343 343 343 341 340 340 341 341 341 343 347 347 347 347 346 347 348 351 354 355 356 357 357 358 358 357 357 357 357 358 357 356 357 357 357 357 358 357 355
344 344 343 343 343 342 342 342 341 342 342 343 345 344 347 346 346 346 346 348 350 353 354 355 356 357 358 358 357 357 357 358 358 357 356 356 357 357 357 358 358 356
345 344 344 343 342 341 342 342 342 342 342 344 343 345 347 346 346 347 347 347 349 351 353 355 355 356 357 358 357 356 356 356 357 357 357 356 356 356 357 357 358 357
345 345 344 343 341 341 340 341 342 342 343 342 342 344 348 348 347 347 348 347 348 350 352 354 355 356 357 357 357 357 356 356 357 357 357 356 355 356 356 357 357 357
344 345 344 343 342 341 340 340 341 342 345 342 342 342 346 349 349 348 348 348 347 349 351 353 354 355 356 357 357 357 357 357 357 357 357 357 357 356 356 356 356 356
343 343 343 343 343 342 341 340 340 341 343 344 343 342 343 346 350 350 348 348 348 348 349 351 353 354 355 355 357 357 357 357 357 357 357 357 357 357 358 357 356 355
344 343 343 343 343 343 343 342 341 341 341 343 344 343 343 343 346 348 348 348 348 349 349 350 352 354 354 355 356 357 357 357 357 357 357 357 357 357 357 358 356 356
344 344 344 343 344 344 344 344 343 342 341 341 344 344 344 343 343 346 349 348 348 349 349 350 351 353 353 354 355 356 357 357 357 357 357 357 357 357 357 357 357 357
344 345 345 345 345 346 345 344 344 343 343 343 343 343 343 344 344 344 346 348 348 348 348 350 351 352 353 354 355 355 356 356 357 357 356 357 357 358 358 357 357 357
346 346 347 347 347 347 346 346 345 345 345 344 344 344 344 344 345 345 345 346 348 348 348 348 349 350 352 353 354 355 356 356 356 356 356 356 356 356 357 357 358 358
347 348 348 348 347 347 347 347 347 347 345 345 344 344 345 346 346 347 346 346 347 348 349 348 348 349 348 342 344 353 355 355 356 356 357 356 356 356 356 356 357 357
347 348 348 348 348 348 348 348 348 348 347 346 346 345 345 346 346 346 346 347 347 347 348 349 349 349 340 333 335 339 351 354 354 355 356 357 356 356 355 356 356 357
347 348 348 348 349 349 349 349 349 348 348 347 346 345 346 346 345 345 346 347 347 347 348 349 350 343 333 331 332 333 341 354 355 355 355 356 356 356 356 356 356 356
348 348 348 349 349 350 350 350 349 349 348 347 346 347 347 346 345 345 346 347 347 347 347 348 350 339 331 330 331 331 332 344 354 355 354 355 355 356 356 356 357 356
348 348 348 349 350 350 350 350 349 349 349 349 349 349 347 346 346 346 346 347 347 347 348 348 349 340 330 327 328 328 330 336 353 354 354 354 355 356 355 356 356 356
349 349 349 350 350 351 350 350 350 350 350 350 349 348 348 347 347 346 347 347 347 348 348 348 349 336 327 325 324 324 327 332 351 354 354 354 355 355 356 356 356 356
350 350 350 351 351 351 351 351 351 350 350 350 350 350 350 349 350 349 348 348 348 349 348 348 349 332 326 324 323 323 325 338 348 351 353 353 354 354 355 356 356 356
353 352 352 352 353 352 351 351 351 351 352 353 351 351 350 349 349 349 350 350 350 350 349 349 350 337 324 322 321 321 325 342 346 349 351 352 352 354 354 355 355 356
356 355 354 354 353 352 351 351 351 351 351 350 350 351 350 350 350 350 351 351 350 350 350 350 350 342 324 319 319 319 329 343 346 348 349 351 352 353 354 354 355 358
355 355 355 354 353 352 351 350 350 350 351 350 349 348 349 352 352 351 351 352 351 351 350 350 351 344 324 319 318 317 328 345 347 348 348 349 350 351 353 354 354 356
353 354 353 353 352 352 352 351 352 352 351 350 350 349 349 350 351 352 351 351 352 352 352 351 351 352 344 319 317 315 320 345 348 347 347 348 349 350 350 352 353 353

ECMWFNIL_sfc_thetae_093.txt.gz
Theta_e
358 358 356 354 355 355 357 356 356 358 361 359 359 361 362 366 368 367 368 369 369 369 369 369 370 370 369 370 371 371 370 370 369 369 369 368 366 362 360 363 364 363
358 358 358 356 356 357 357 357 359 359 361 362 361 362 365 366 365 365 366 367 368 368 370 369 370 370 370 369 370 369 369 370 369 368 369 369 368 365 362 363 362 364
357 357 355 354 352 353 351 354 358 358 358 358 361 363 362 362 363 364 365 366 366 366 369 369 369 370 369 370 370 368 367 370 368 367 369 369 368 366 365 361 361 363
357 357 354 354 354 353 352 353 355 357 357 358 358 358 359 358 361 362 363 364 365 366 368 368 367 367 369 370 370 367 367 368 367 370 369 370 369 366 365 365 363 363
356 356 355 355 354 355 354 352 350 352 353 355 357 360 360 361 360 359 361 361 364 364 366 367 368 367 369 369 370 367 367 366 368 370 368 368 370 369 366 365 365 362
356 357 357 355 355 355 352 351 351 351 352 352 355 357 357 359 359 358 358 358 359 360 360 362 365 365 366 368 368 367 366 363 365 369 367 367 365 366 364 367 366 363
354 355 355 354 354 354 353 352 352 353 351 352 355 355 357 356 358 359 359 359 357 360 359 362 365 364 366 367 368 368 367 367 367 369 367 365 367 367 365 367 367 365
354 354 354 354 353 353 352 352 352 352 353 354 352 354 356 354 356 356 358 357 357 359 361 361 364 366 364 365 366 365 366 365 366 368 368 366 367 366 367 366 368 367
354 354 353 353 352 351 350 350 351 352 353 352 350 350 354 354 354 354 358 359 357 358 361 361 364 363 363 364 364 365 365 363 363 365 366 364 364 366 364 366 365 366
354 353 352 351 350 350 350 350 350 351 353 351 350 350 351 354 355 354 357 359 357 358 360 360 362 362 362 363 364 365 365 366 366 366 365 364 363 364 364 365 363 363
352 352 352 351 350 350 350 350 350 350 351 350 350 349 351 352 355 356 357 358 354 356 358 359 359 361 362 361 362 364 365 364 365 367 366 365 364 365 365 366 365 363
352 351 351 351 350 350 350 349 350 350 350 351 350 349 350 351 353 354 355 357 356 356 358 359 361 362 363 363 360 362 364 364 364 365 364 365 364 364 365 366 364 365
351 351 351 351 352 351 350 350 349 349 349 349 350 350 349 349 350 353 356 356 357 357 356 359 360 360 363 364 363 363 363 364 361 363 363 364 364 362 362 363 364 363
352 352 351 352 353 354 353 351 350 349 349 350 351 350 349 349 348 349 353 354 356 356 357 360 361 360 362 364 364 362 362 363 362 361 360 362 362 363 362 361 362 363
354 353 353 353 353 354 353 352 351 351 350 350 351 350 349 349 349 349 350 352 354 356 357 357 357 358 359 361 362 362 362 360 361 361 360 360 362 361 362 363 362 361
355 355 354 354 354 354 355 354 353 353 351 350 350 349 350 351 351 351 349 350 351 354 356 355 355 357 354 344 347 360 361 358 359 362 361 360 361 361 360 361 361 361
355 354 355 355 355 355 356 355 354 354 353 353 352 351 351 352 351 350 349 349 349 350 352 352 353 352 341 334 334 338 354 360 359 361 363 362 360 362 361 359 361 363
353 354 354 355 356 355 355 356 355 355 355 355 353 351 353 352 350 350 351 350 349 350 349 350 352 343 333 331 332 332 340 356 357 358 358 360 361 359 360 360 360 360
355 355 355 355 356 356 357 357 356 355 354 354 351 353 353 352 352 351 351 351 350 351 350 350 351 339 331 329 330 330 330 342 353 356 356 357 359 360 359 361 362 361
356 355 354 355 357 357 357 357 356 355 355 354 354 355 354 353 352 352 352 353 352 352 353 352 352 341 329 327 327 327 328 334 353 354 356 357 358 359 359 360 362 363
356 355 355 357 357 358 358 357 356 357 356 355 354 354 354 354 352 352 353 353 352 352 352 352 351 336 327 325 324 324 326 331 352 353 354 357 358 360 362 361 362 363
355 355 356 357 357 357 357 356 357 358 357 357 355 354 355 355 355 354 353 353 353 353 351 351 352 332 326 323 322 322 325 341 351 355 356 356 358 360 362 363 363 363
355 354 356 356 357 357 356 356 357 357 358 359 356 354 353 354 355 354 356 354 354 354 352 353 353 338 323 321 321 321 326 347 352 354 356 356 357 360 361 363 363 364
358 357 357 357 358 357 356 357 358 359 358 360 357 355 353 354 356 356 356 356 355 354 353 353 354 343 321 319 319 319 331 350 353 354 355 357 357 359 361 363 364 360
360 361 358 357 357 357 357 357 358 359 360 362 359 358 356 358 357 356 356 357 356 355 350 352 355 346 321 319 318 317 330 352 354 355 354 355 356 357 361 362 363 360
357 359 361 360 358 359 360 359 361 359 360 359 358 359 358 358 357 358 356 357 357 357 356 355 355 357 348 318 317 315 319 350 356 354 354 354 356 356 357 361 361 363

ECMWFNIL_sfc_thetae_099.txt.gz
Theta_e
361 362 361 359 357 355 356 356 357 359 360 358 357 358 357 361 363 362 362 364 366 367 369 372 371 373 371 377 373 370 373 370 370 369 366 367 364 360 356 356 357 356
361 362 362 360 360 359 357 357 359 357 360 360 357 355 359 361 360 362 363 362 365 364 368 367 370 372 373 370 374 368 372 372 369 367 368 369 367 366 360 358 355 358
361 361 360 359 355 358 353 357 360 358 356 357 357 357 355 358 360 363 364 363 362 360 364 366 366 368 368 370 376 369 370 373 368 366 369 368 367 367 367 356 355 356
363 361 359 358 355 355 356 355 357 359 355 355 355 354 354 353 358 360 363 363 362 361 362 363 363 363 365 367 371 370 370 374 371 370 371 373 368 366 367 363 358 355
363 360 358 358 356 357 358 354 353 355 355 353 355 356 356 357 356 357 359 360 363 361 361 362 362 362 364 366 368 367 367 368 369 371 370 373 371 367 365 363 363 357
366 364 362 358 358 357 354 355 355 351 354 351 353 352 355 355 354 355 357 357 356 356 354 358 360 360 360 363 365 365 363 360 363 367 366 366 365 365 362 364 365 361
365 365 361 358 358 356 356 356 357 356 353 353 355 353 353 355 356 357 357 356 353 355 352 356 360 359 360 362 364 365 364 363 363 366 365 364 364 363 364 365 368 364
363 364 363 360 357 356 356 355 357 357 356 354 350 354 354 353 358 357 356 355 353 353 356 353 359 361 357 358 361 362 363 358 359 362 364 364 364 363 362 361 366 366
362 363 364 361 357 354 353 352 354 357 358 354 350 351 355 354 354 356 357 358 356 355 358 356 360 358 358 357 359 360 361 357 353 357 359 359 359 361 361 362 360 362
362 360 359 359 354 353 352 352 349 353 357 354 352 349 350 355 355 354 356 360 357 356 357 359 358 359 359 356 356 358 359 361 360 358 358 358 357 357 357 358 358 359
361 359 356 357 354 352 351 350 349 347 351 353 352 349 348 352 355 355 357 357 355 356 356 358 357 359 360 356 354 356 358 358 358 359 358 358 358 358 358 358 358 357
361 361 356 355 355 352 350 350 349 347 347 350 351 350 349 347 352 352 352 355 358 358 357 359 360 360 361 359 353 353 354 356 356 356 355 357 356 354 355 357 356 357
358 358 357 355 355 355 353 351 350 348 346 347 350 350 348 346 346 352 352 352 356 358 356 358 360 359 362 362 358 354 353 356 352 353 354 355 356 354 353 353 353 353
361 361 359 358 357 361 358 352 350 349 350 349 350 350 348 346 344 346 351 352 353 356 357 357 359 359 360 362 361 355 351 351 353 352 350 352 351 352 352 350 350 351
364 362 363 361 361 361 360 356 353 354 354 353 352 350 349 348 346 344 346 350 352 354 356 354 352 356 356 358 359 358 353 347 348 351 351 351 351 350 351 351 350 348
364 364 364 363 362 363 366 363 358 355 351 352 351 350 353 355 353 348 344 346 350 354 355 353 350 351 356 349 352 357 356 346 345 351 353 352 352 350 347 346 348 349
362 362 365 365 367 364 365 366 365 362 362 361 357 355 357 362 357 350 346 343 345 350 352 352 350 347 345 337 338 344 354 355 350 351 355 353 350 355 353 347 344 345
360 362 364 363 364 366 366 368 367 365 364 363 357 355 362 356 355 355 356 350 347 347 349 351 351 347 333 334 336 336 346 358 352 350 347 349 352 350 350 351 348 343
357 360 364 364 362 364 366 366 367 366 364 361 358 360 359 362 363 358 359 358 353 352 348 349 350 343 331 330 333 334 335 347 350 350 348 347 349 353 353 353 354 351
358 355 359 363 364 364 363 365 366 366 364 362 361 362 361 360 360 361 361 363 360 358 357 352 352 345 329 327 329 330 332 339 354 349 348 348 351 352 354 356 358 356
360 356 356 358 364 363 363 365 364 366 365 363 360 359 361 361 360 361 361 362 361 359 359 354 352 337 326 325 325 326 329 335 356 354 352 351 350 353 360 357 360 359
355 356 358 358 363 363 362 361 364 365 365 365 362 358 359 360 362 362 361 360 361 360 358 357 356 334 324 324 323 324 328 347 356 358 357 355 354 356 356 360 361 362
353 353 355 357 357 354 357 357 359 362 363 365 362 360 356 356 359 360 363 361 361 361 360 360 358 344 323 321 321 322 330 353 358 357 358 357 356 357 358 358 359 363
350 352 353 354 352 352 353 357 357 356 355 362 361 359 358 355 355 359 361 362 361 360 359 360 360 349 321 318 318 319 335 356 358 357 357 358 358 359 359 360 361 361
347 350 352 351 349 351 353 352 354 354 357 358 358 357 357 358 358 357 358 359 359 360 359 358 359 351 319 318 316 317 334 358 359 357 356 357 357 358 360 360 361 362
345 348 349 350 350 351 353 353 355 356 356 357 356 357 356 356 356 356 358 358 357 358 359 359 359 361 349 316 316 315 321 357 360 357 355 356 358 358 359 361 361 362

ECMWFNIL_sfc_thetae_102.txt.gz
Theta_e
363 364 362 362 362 362 364 361 360 360 365 362 362 363 364 366 368 364 365 369 369 370 372 374 373 375 372 374 374 374 374 375 372 372 370 367 365 359 356 359 364 368
363 363 365 362 365 366 366 363 364 364 366 370 365 366 368 368 366 365 365 366 368 367 372 370 372 374 373 371 374 370 374 373 370 366 368 369 369 365 360 362 358 367
362 362 360 359 356 358 354 358 363 362 361 359 362 366 362 363 363 371 369 366 364 363 370 371 371 373 371 373 375 371 369 373 369 364 370 370 369 367 373 357 357 357
362 361 358 357 356 355 355 357 361 361 359 361 358 355 355 355 362 363 369 367 367 367 364 366 367 366 369 371 374 373 370 374 371 373 373 372 372 368 366 367 362 359
360 360 359 358 357 359 357 355 353 356 355 358 356 360 360 367 361 361 363 365 369 364 367 366 367 366 369 370 371 372 370 370 372 374 374 373 374 371 364 366 371 363
363 362 362 360 360 360 355 353 354 354 355 353 355 356 355 363 358 358 359 359 358 357 357 359 361 361 363 368 369 369 367 364 366 371 369 370 368 367 361 366 367 365
359 361 357 358 356 357 356 355 355 356 353 352 356 355 355 353 357 358 360 360 358 359 356 359 364 363 363 367 368 369 370 370 370 370 368 367 369 367 362 368 371 368
360 359 358 357 354 353 354 355 354 355 357 356 352 356 355 351 354 353 358 358 357 358 359 360 364 367 359 363 364 366 365 360 363 370 369 367 368 367 366 363 369 368
360 360 359 356 352 351 350 351 353 354 356 354 350 350 354 355 354 352 358 359 357 359 359 361 364 361 360 361 362 364 363 360 358 361 364 363 363 365 364 365 364 368
361 361 358 355 352 350 349 349 350 352 355 353 351 350 350 354 356 354 358 362 358 360 360 357 363 359 357 358 364 363 363 364 364 364 360 360 361 362 360 362 361 362
354 355 356 357 353 350 349 349 348 350 354 352 351 348 349 350 355 358 359 360 355 357 361 358 358 359 359 356 357 359 361 360 360 363 364 361 359 360 363 362 361 359
355 353 351 354 355 351 349 349 348 347 350 353 352 350 349 350 352 352 356 358 356 355 357 360 359 360 361 360 355 355 358 358 360 361 358 360 361 360 360 360 358 359
358 356 351 350 353 352 350 349 348 346 346 348 352 351 348 346 349 351 353 357 357 356 355 358 360 359 362 363 361 357 355 357 355 358 357 357 356 355 355 356 356 356
359 355 350 350 354 355 354 349 347 347 347 348 351 350 347 346 345 348 352 352 356 356 356 358 360 359 361 363 362 359 356 357 355 354 353 354 353 354 353 351 352 352
356 358 359 357 355 355 357 355 352 351 352 351 352 349 347 346 346 344 349 350 352 355 356 356 356 358 358 360 361 360 357 353 355 354 353 353 353 351 352 354 352 350
358 359 359 356 354 355 360 364 358 358 350 351 351 351 351 351 350 348 345 349 349 353 355 355 355 355 356 349 351 359 358 352 350 353 353 351 354 353 350 350 349 348
360 359 356 356 358 358 359 362 365 363 360 360 357 355 354 357 352 349 345 343 348 349 352 351 352 352 346 337 338 344 356 356 351 351 353 353 352 354 353 350 348 350
356 359 360 361 363 363 365 365 367 366 361 364 359 355 363 360 354 352 352 347 343 346 347 349 351 348 334 333 335 335 345 356 353 350 347 349 350 348 349 350 349 346
356 358 359 358 358 361 360 356 357 358 357 352 351 355 356 359 360 357 355 354 349 349 345 347 350 342 332 329 332 333 334 346 352 351 347 343 345 348 347 348 350 350
354 354 354 356 357 356 357 356 354 354 354 356 357 353 351 356 355 357 359 359 356 354 355 351 348 343 330 326 328 329 331 337 352 350 350 348 347 346 346 348 350 351
349 352 353 355 356 356 355 355 354 354 354 356 355 353 351 351 350 354 356 359 358 356 355 354 349 336 327 324 324 325 329 334 352 352 349 348 349 350 355 353 354 354
347 348 350 353 354 353 353 353 354 354 353 356 354 352 352 354 352 352 354 358 358 357 354 355 353 335 326 321 321 323 327 343 351 354 352 350 349 351 352 354 356 359
345 346 347 350 353 351 351 353 354 351 351 356 354 354 354 352 352 355 358 358 357 358 359 358 358 345 328 318 319 320 326 346 350 353 354 352 352 355 357 357 356 356
346 347 347 348 351 349 351 351 353 357 357 358 356 356 354 352 353 353 355 357 357 357 356 359 358 353 332 316 316 318 331 347 350 352 353 354 355 357 358 359 361 363
343 346 346 347 349 351 351 350 351 353 356 359 359 358 356 355 355 354 355 356 356 357 361 360 359 350 333 317 315 315 329 349 354 354 354 354 355 356 359 359 360 363
341 346 346 345 348 350 352 352 352 353 355 357 356 358 356 356 356 356 355 355 356 356 355 355 359 359 353 324 312 312 319 350 357 356 354 354 356 356 357 360 360 360

ECMWFNIL_sfc_thetae_105.txt.gz
Theta_e
355 358 355 357 356 357 357 357 360 358 358 358 359 359 358 359 360 358 360 362 362 363 363 365 368 368 369 367 367 365 369 364 362 362 362 360 357 357 356 354 354 353
355 358 359 357 358 360 358 358 358 358 358 357 359 358 361 359 362 361 360 361 363 364 366 366 366 366 366 365 365 365 364 365 358 368 360 361 358 357 355 356 353 353
356 357 357 355 356 357 359 357 358 358 358 361 359 359 360 361 361 358 361 362 360 363 365 365 365 365 365 366 364 363 363 363 360 363 361 361 360 359 361 359 354 351
355 356 357 355 355 355 354 355 357 357 358 357 357 359 357 359 357 360 360 367 359 360 364 364 364 365 365 365 365 362 362 363 364 362 362 363 363 362 360 359 359 355
355 355 356 355 354 354 352 352 354 354 354 355 355 355 354 354 354 356 361 360 358 359 360 362 362 362 363 363 366 363 362 363 364 363 362 362 362 363 361 360 357 357
356 356 355 355 354 352 351 350 351 353 352 354 354 355 351 356 354 354 358 357 360 358 359 359 360 361 362 362 364 363 362 363 363 363 361 362 364 363 362 359 358 356
355 355 355 355 354 354 350 349 349 352 351 351 354 352 351 357 353 354 355 356 355 356 354 356 356 356 360 360 361 361 361 361 360 362 361 360 361 361 362 360 358 356
355 355 355 355 354 352 352 349 349 350 351 350 351 351 350 351 352 354 354 355 354 353 353 353 355 354 356 359 358 360 359 362 362 361 360 359 360 358 358 359 361 357
356 355 355 354 353 351 351 351 350 349 352 350 349 350 351 349 350 350 353 353 353 353 353 353 355 355 355 358 357 358 357 357 357 357 360 359 359 358 359 359 356 357
349 353 355 354 352 351 349 349 349 349 352 350 349 348 350 350 348 348 349 352 352 352 352 351 355 355 355 354 357 357 357 356 355 354 354 357 358 358 358 357 356 355
350 353 352 354 352 350 349 348 347 348 349 349 349 347 347 349 350 348 347 352 352 350 352 349 354 354 352 352 355 357 357 356 355 355 355 353 355 355 363 356 355 354
351 352 354 354 355 352 349 348 347 346 348 349 349 347 345 346 349 349 348 349 351 350 352 351 351 353 351 350 350 353 356 356 356 354 354 355 354 353 354 356 355 354
354 352 353 354 353 353 351 349 345 346 346 348 349 348 346 344 345 349 350 349 351 351 350 353 351 352 352 351 349 349 351 354 354 354 353 352 353 354 354 354 354 354
357 357 356 354 354 353 352 353 351 352 345 345 350 348 347 346 344 345 349 351 351 351 350 351 352 352 351 353 352 351 350 350 351 352 352 351 350 350 351 351 351 352
353 354 356 356 356 355 354 353 354 357 355 350 346 349 349 347 346 345 345 349 352 351 350 350 351 353 353 353 354 353 352 350 349 349 350 350 350 349 349 349 349 349
353 353 355 354 354 353 354 355 357 357 355 355 353 352 347 347 346 343 345 345 348 351 350 350 350 352 355 349 351 355 352 352 351 349 348 348 348 348 347 348 349 348
356 354 353 353 353 355 357 355 353 353 355 353 352 353 351 350 349 344 341 345 345 348 350 350 350 351 346 337 338 344 354 352 350 347 347 347 346 346 346 346 346 347
354 356 355 357 358 357 353 352 353 351 352 352 352 352 351 352 350 349 348 343 343 346 348 350 350 348 337 334 335 336 345 354 352 350 347 345 346 345 345 346 345 345
352 353 354 354 355 356 353 353 354 352 352 352 353 353 352 349 348 349 348 351 347 341 344 348 349 342 333 332 333 333 334 346 352 351 348 345 343 344 344 344 345 345
348 349 350 353 354 353 354 355 353 352 351 352 354 355 352 350 350 349 348 348 349 349 343 344 346 343 330 328 328 329 331 337 350 350 349 347 344 342 343 343 342 343
346 346 348 350 352 352 351 352 353 352 353 352 353 353 351 350 350 349 349 349 350 351 351 347 346 338 328 325 324 324 328 333 347 350 348 347 346 343 341 341 341 343
345 345 344 348 351 350 349 349 350 351 351 353 354 353 352 352 351 351 350 350 350 351 353 352 353 337 329 323 320 321 325 337 343 346 347 346 345 344 344 342 342 342
346 345 345 344 348 349 348 347 348 349 351 351 350 351 351 351 350 351 351 352 352 355 354 352 352 342 331 326 318 317 322 333 339 343 346 346 345 345 344 344 345 347
338 348 345 345 346 347 348 349 350 350 351 355 354 352 352 352 352 352 353 353 352 353 356 353 353 346 324 319 322 318 324 331 336 339 342 345 346 347 346 345 346 357
336 341 342 344 345 346 347 347 348 348 349 352 354 356 354 353 354 352 353 353 354 354 360 356 353 345 329 331 330 325 325 332 336 339 339 342 344 346 347 348 347 355
336 338 338 337 341 344 346 348 351 351 349 350 352 353 354 355 355 354 353 354 355 355 356 359 352 351 347 325 325 323 321 337 339 339 340 341 343 345 346 347 349 349

ECMWFNIL_sfc_thetae_108.txt.gz
Theta_e
353 353 351 352 351 353 354 354 355 353 352 353 354 353 355 356 359 358 360 359 359 360 359 358 359 361 365 362 364 360 359 356 355 356 354 355 354 354 354 351 351 349
352 355 357 353 354 356 355 357 356 354 354 356 356 356 355 357 357 357 359 359 361 360 359 359 362 363 362 362 361 359 360 359 356 363 357 356 356 354 353 352 352 352
352 355 355 353 353 354 355 356 357 356 355 357 358 358 357 359 357 357 358 359 360 359 360 361 362 363 363 362 360 360 360 358 355 358 358 355 356 356 355 357 356 353
352 354 354 354 354 354 355 354 356 356 357 356 356 358 359 360 358 357 357 364 359 360 360 362 362 362 362 362 361 358 359 358 360 359 358 357 359 357 357 356 359 357
352 353 354 353 354 355 355 354 354 355 356 357 356 357 357 357 357 356 357 360 357 359 361 362 361 361 362 360 361 359 358 359 359 358 357 356 358 358 358 357 356 354
353 353 354 353 353 352 353 353 354 354 355 355 356 357 355 352 355 355 357 359 357 357 360 361 360 360 361 360 361 361 360 360 360 358 358 358 359 362 362 359 355 353
353 353 353 354 352 352 351 351 352 354 353 353 354 353 354 351 351 354 357 358 357 356 357 358 358 359 359 359 359 360 359 359 359 359 358 358 359 359 361 359 357 355
353 353 354 353 352 351 351 349 349 352 352 351 352 351 350 350 351 351 356 356 356 355 355 356 357 357 358 358 358 358 358 360 359 357 357 357 355 355 357 358 356 354
354 353 353 352 353 351 351 350 349 349 351 350 351 351 351 350 351 351 352 353 354 354 352 353 354 354 354 356 356 357 357 357 358 357 357 356 356 356 356 356 354 353
352 353 353 353 352 352 351 350 349 348 350 349 349 350 350 349 351 351 351 351 351 351 351 350 351 352 352 353 355 355 356 355 355 353 355 356 356 356 356 356 355 353
350 352 352 352 352 352 351 350 349 348 349 349 348 348 349 348 349 350 351 351 351 351 350 350 350 351 351 351 353 355 355 355 354 353 352 352 354 356 362 356 355 354
349 349 350 352 352 351 351 350 348 347 347 349 349 347 347 348 347 347 349 350 350 350 350 350 350 351 351 351 351 353 354 354 354 353 353 352 352 352 353 355 355 353
348 350 352 352 351 350 349 348 346 345 344 347 349 348 346 346 347 346 347 348 350 350 350 350 349 350 351 351 350 351 353 353 353 352 352 351 352 352 352 351 352 353
346 349 352 351 352 352 351 350 351 354 352 348 347 346 346 345 345 346 346 346 347 349 350 350 349 348 349 350 349 348 349 351 352 352 352 351 350 350 352 351 351 351
349 350 351 352 354 349 349 351 353 355 353 352 349 347 348 346 345 345 346 346 345 346 348 349 349 349 349 349 349 347 347 346 349 351 351 350 350 349 349 349 350 350
350 353 352 352 351 351 351 352 354 354 354 354 352 352 349 349 347 344 343 346 346 346 346 348 348 350 352 346 348 350 347 347 347 347 348 348 349 348 348 347 347 347
350 348 349 349 350 351 352 352 353 352 351 352 351 350 348 348 347 345 341 342 345 346 346 347 348 349 344 336 337 342 350 348 347 346 346 346 346 346 346 347 347 347
351 351 351 353 354 352 351 350 350 350 351 350 350 350 349 352 347 345 345 343 342 343 346 348 348 347 335 333 334 334 343 351 349 348 347 346 345 345 345 345 345 346
348 349 351 351 351 353 352 351 350 349 348 349 349 350 351 348 348 347 345 346 344 341 342 345 348 342 333 331 331 331 332 343 349 349 348 347 346 345 345 344 344 344
345 346 347 349 350 350 350 351 350 349 350 350 351 352 350 349 349 348 347 346 346 345 343 342 343 343 332 328 328 328 330 333 347 348 348 348 347 346 346 344 344 343
343 344 344 347 349 348 348 348 348 348 349 350 351 351 350 349 348 348 348 350 349 348 348 348 346 338 329 325 324 325 327 331 343 347 348 347 348 348 346 345 344 344
343 342 342 344 346 346 346 346 346 345 346 349 351 351 350 350 349 349 349 348 349 349 348 347 351 336 330 324 321 322 325 334 338 342 344 346 347 347 347 346 345 343
336 343 343 343 345 344 343 344 345 345 346 348 348 350 349 349 349 349 350 349 349 350 349 349 350 340 329 323 318 318 323 333 335 338 340 342 344 346 347 346 345 344
334 336 336 336 340 343 344 344 345 345 345 347 346 348 350 352 352 351 351 351 351 350 351 350 351 348 326 323 321 316 327 332 333 335 337 339 341 343 345 345 346 354
331 333 333 332 333 337 343 345 345 346 348 347 346 347 348 351 354 353 352 352 353 352 356 354 352 349 328 318 318 316 326 336 335 334 335 335 337 339 341 344 345 352
329 331 332 332 331 332 335 339 346 347 347 347 346 345 347 351 353 353 352 353 354 354 355 354 354 353 347 321 314 314 317 339 337 337 337 338 338 338 339 340 342 343

ECMWFNIL_sfc_thetae_111.txt.gz
Theta_e
350 352 348 349 349 349 349 350 350 350 350 350 350 352 353 355 358 358 359 358 358 358 358 356 356 357 361 359 361 358 357 353 352 352 350 352 351 352 353 350 348 347
350 352 354 351 351 353 351 351 352 351 350 350 351 352 353 355 356 358 358 358 358 358 358 357 357 357 358 360 359 356 354 354 353 360 353 352 351 352 352 351 350 350
349 351 352 350 350 350 352 353 353 352 351 351 352 353 354 356 355 356 357 357 357 357 357 357 357 358 360 359 358 358 357 354 353 353 355 352 352 351 350 353 352 353
349 351 352 352 350 351 352 353 353 353 352 352 353 355 355 357 356 355 355 361 356 356 357 357 358 359 360 360 358 356 357 356 356 354 354 355 355 353 352 351 355 353
350 350 352 352 351 352 352 352 354 353 353 353 354 355 356 355 354 354 354 355 356 356 356 357 358 358 359 358 357 356 355 355 354 354 353 352 353 354 354 354 351 352
351 350 352 352 351 351 352 352 353 354 354 353 353 356 355 355 355 354 354 354 356 356 357 357 357 358 359 357 357 357 356 356 354 353 353 352 354 355 359 356 353 351
351 350 351 352 351 351 352 352 352 354 354 355 354 354 355 353 353 354 354 354 355 355 356 357 356 357 357 357 356 356 355 354 353 353 352 353 354 355 356 356 354 352
352 352 351 352 351 350 351 351 351 352 353 353 353 354 354 353 351 353 354 355 355 354 354 356 357 356 357 356 355 354 355 358 356 354 353 353 351 352 354 356 353 351
352 352 351 351 351 350 350 350 351 351 352 351 351 352 353 353 351 351 353 354 355 354 353 354 355 356 356 356 355 355 355 356 357 355 354 354 353 353 354 353 351 351
351 352 352 351 351 351 350 350 350 349 351 351 351 351 351 351 351 350 350 352 353 354 353 353 353 354 354 355 355 355 354 354 354 354 354 354 354 354 354 354 353 351
348 350 351 351 351 351 351 351 350 349 348 349 350 349 350 350 349 349 348 349 351 352 352 351 351 352 352 352 353 354 354 355 354 353 353 353 353 354 359 354 353 353
347 348 350 351 351 352 352 352 351 350 348 348 349 348 348 349 348 348 349 348 349 350 351 351 350 350 351 351 351 352 352 353 353 353 353 352 351 352 353 354 354 353
346 347 347 349 350 351 352 352 351 350 349 348 349 349 348 347 348 347 349 349 349 349 349 350 350 349 349 349 349 349 350 351 351 351 351 351 351 350 351 351 353 353
346 347 349 349 348 348 350 350 351 349 348 348 348 347 347 347 347 347 347 348 349 349 350 350 349 349 348 348 349 349 349 349 350 350 350 350 350 350 350 350 350 351
347 347 348 349 349 349 348 348 351 349 349 346 346 346 348 347 347 346 346 346 347 348 349 350 349 349 349 348 348 348 348 347 348 349 349 349 349 349 349 349 349 350
347 348 348 347 347 348 348 348 348 349 352 349 347 345 345 346 345 345 345 345 344 344 346 348 349 349 352 345 347 350 347 348 347 348 348 349 348 348 348 348 348 348
348 348 347 346 347 347 347 348 348 348 348 350 350 348 346 346 346 343 343 343 344 344 343 344 346 348 344 336 335 339 349 347 346 345 345 346 347 347 346 347 347 347
350 350 350 349 349 350 348 348 350 349 348 347 346 349 348 350 346 344 342 341 342 343 344 344 345 345 335 333 333 333 341 349 347 346 345 344 344 344 345 345 345 345
345 346 347 347 347 347 349 348 348 346 346 346 347 346 351 348 346 346 344 343 342 339 341 344 345 340 333 331 331 331 331 340 347 347 345 345 344 344 344 344 344 344
343 344 344 345 347 347 347 347 347 345 346 348 349 349 348 348 348 346 345 343 344 343 342 341 342 343 331 328 328 328 328 332 343 346 346 346 345 345 345 344 344 343
343 342 342 344 345 346 346 346 346 344 344 346 348 348 346 346 346 345 346 348 348 348 346 346 347 339 331 325 323 323 325 329 339 343 344 345 346 346 345 345 345 345
337 340 338 340 343 344 344 345 345 345 345 347 347 347 348 348 348 347 346 347 347 347 347 346 348 337 333 328 322 320 324 332 336 338 340 343 344 345 345 346 346 345
333 334 334 334 336 339 341 342 343 344 345 347 345 345 346 348 349 349 350 349 349 348 346 346 348 342 332 327 324 320 323 332 334 337 338 339 341 343 344 345 345 345
329 330 330 331 330 331 334 338 342 345 344 347 344 342 343 346 349 350 349 350 350 349 350 349 349 347 334 325 323 320 327 334 335 335 336 338 339 341 342 343 345 355
327 329 328 328 327 328 331 333 335 340 345 346 344 343 343 346 351 350 351 352 353 353 356 354 352 349 334 326 318 317 325 334 335 334 334 334 336 337 339 340 341 348
326 328 328 327 326 327 329 332 336 336 337 342 343 343 345 346 348 348 348 348 350 350 351 352 353 352 346 323 319 317 317 332 337 337 337 339 339 339 339 339 339 340

ECMWFNIL_sfc_thetae_114.txt.gz
Theta_e
350 351 350 350 351 352 352 352 352 353 353 353 353 354 355 357 359 360 360 361 361 360 361 360 361 362 362 362 364 363 363 359 360 358 358 358 357 356 356 355 354 357
350 352 354 352 352 354 353 353 353 353 353 353 354 355 356 358 358 360 360 360 361 361 361 361 361 361 362 363 363 364 362 361 359 360 358 358 358 357 357 357 356 357
351 352 353 350 351 352 352 353 354 354 354 354 354 355 355 358 358 359 360 360 360 360 361 361 361 361 361 362 363 364 363 361 360 360 363 359 358 358 359 358 358 358
351 352 353 352 352 352 353 353 354 354 354 353 353 355 356 357 358 358 359 363 360 360 360 360 361 361 361 362 363 363 362 362 363 360 361 362 361 359 359 358 360 360
350 351 353 353 352 353 354 353 353 354 354 354 354 356 358 358 358 357 358 359 360 359 359 360 360 360 362 362 363 362 362 362 362 362 361 360 361 362 361 360 359 358
350 351 353 353 353 353 353 353 354 355 355 353 354 357 357 357 357 357 357 357 357 358 358 359 360 360 361 362 362 362 362 361 361 361 361 361 361 361 362 362 360 359
350 350 350 353 353 353 353 353 354 356 355 356 356 356 357 357 356 357 357 357 357 358 358 359 360 360 361 361 361 361 361 361 360 360 359 359 360 361 361 363 363 361
350 351 351 352 353 352 353 353 353 355 356 357 355 356 357 356 357 357 358 357 357 357 358 359 360 360 360 360 360 360 359 359 360 360 359 359 358 359 360 360 361 361
351 351 351 351 352 352 352 352 353 354 356 356 356 356 357 357 356 356 357 357 357 358 358 358 359 359 360 360 360 359 359 359 360 360 360 359 358 359 359 359 358 359
351 352 351 351 351 352 351 352 353 353 355 354 354 355 355 357 357 356 355 355 356 357 357 357 358 358 359 359 359 359 359 359 359 360 360 359 359 359 359 359 359 358
351 352 351 351 351 351 352 352 352 352 353 353 353 353 354 354 355 355 354 354 354 355 357 357 357 357 358 358 358 359 359 359 359 359 358 359 359 359 361 360 359 358
351 351 351 351 352 352 352 352 352 352 351 352 353 352 353 352 353 353 353 352 353 355 356 357 357 357 357 357 357 358 358 358 358 358 358 358 357 357 357 359 358 358
351 351 352 352 353 353 353 353 352 352 351 350 352 352 351 351 351 352 353 353 353 353 354 355 356 355 356 356 356 356 356 357 356 357 357 357 357 356 356 356 356 357
350 351 352 352 351 350 350 350 351 352 353 353 352 351 350 350 350 350 351 352 352 352 353 354 354 354 354 355 355 355 354 354 355 355 355 355 355 356 356 355 355 355
348 349 350 349 347 346 347 348 350 350 352 351 351 351 350 351 351 350 350 350 351 351 352 353 352 352 353 353 353 353 353 352 353 353 353 354 354 353 354 354 354 354
347 348 347 347 346 345 345 347 349 350 349 351 351 350 349 351 352 351 350 349 349 350 350 350 351 352 353 346 347 353 353 352 352 352 353 353 353 353 352 353 353 353
347 347 347 346 345 345 345 346 347 350 350 350 349 349 349 350 350 348 347 347 347 348 348 347 349 350 344 336 335 339 351 353 352 351 352 352 352 352 352 352 353 353
348 347 347 347 346 347 347 347 347 346 347 351 349 347 348 348 349 349 349 348 347 346 346 347 348 346 334 333 334 333 340 352 352 351 351 351 351 351 351 352 352 351
345 346 347 347 347 347 347 347 348 347 347 348 349 350 349 348 348 348 348 348 348 348 347 346 346 341 332 329 330 330 330 341 351 352 351 350 350 350 349 350 350 351
342 343 344 345 346 346 346 346 346 346 347 349 349 349 347 347 347 347 346 347 348 348 348 349 349 344 332 329 326 326 327 332 345 348 350 350 350 350 348 349 349 349
335 335 338 341 344 345 345 346 345 345 346 347 348 348 347 346 347 347 347 348 347 346 346 346 348 337 331 328 324 321 322 329 340 343 346 348 349 350 351 350 350 350
333 333 333 334 337 339 340 342 344 345 345 347 347 346 348 349 348 349 348 348 348 348 347 346 349 333 331 329 325 324 323 334 339 341 343 344 346 348 350 352 352 352
330 330 331 331 333 334 335 337 339 342 345 348 345 345 346 347 347 348 349 348 349 350 349 348 349 339 325 321 319 319 328 338 339 341 342 342 343 345 347 349 351 352
330 329 328 330 330 331 333 335 338 341 344 348 345 344 345 347 349 349 351 351 351 350 348 348 350 333 320 319 318 317 326 338 341 341 341 342 342 344 345 347 348 350
329 329 328 328 329 330 332 334 336 338 342 346 346 345 345 346 346 342 342 343 346 346 347 348 346 336 320 318 317 316 328 340 341 341 341 342 342 343 344 345 346 347
328 329 329 329 329 329 330 332 338 342 343 344 344 344 343 344 344 341 338 340 343 345 346 346 342 338 332 317 314 317 322 341 343 343 342 343 345 346 347 348 348 349

ECMWFNIL_sfc_thetae_117.txt.gz
Theta_e
363 363 361 361 361 362 364 363 363 363 365 362 361 362 363 364 367 367 367 368 368 367 368 369 370 369 368 369 370 369 369 368 368 367 368 366 362 361 358 360 362 362
362 363 364 362 364 365 365 365 366 365 366 367 365 365 367 367 366 367 368 367 368 367 369 367 368 369 369 368 369 368 368 369 368 366 367 366 364 363 361 361 361 364
361 362 361 360 358 360 359 364 366 365 364 364 366 368 366 366 366 369 369 368 367 365 368 368 368 368 367 368 369 368 366 369 368 367 369 367 364 363 365 361 360 362
362 362 359 358 359 360 361 363 364 365 365 364 364 363 365 362 367 367 369 369 368 367 367 367 367 367 368 368 370 367 367 368 369 371 370 370 369 365 364 365 363 362
360 362 361 361 361 363 363 361 359 361 362 363 363 366 366 367 367 365 367 368 370 368 368 368 369 368 370 370 370 368 366 365 368 371 370 369 371 368 365 365 365 362
362 364 365 363 363 363 360 360 361 361 362 361 363 364 364 365 365 365 365 363 363 363 363 364 366 366 367 369 370 368 366 363 366 369 368 368 367 368 365 367 367 364
357 361 361 362 362 362 362 363 363 364 362 362 365 364 364 363 364 365 366 365 363 364 363 366 369 367 368 370 370 369 369 369 369 369 367 366 368 367 366 366 366 366
356 358 360 361 360 361 361 362 362 363 365 365 362 364 365 363 364 363 365 365 364 365 367 366 369 371 367 368 368 368 368 364 366 368 367 367 367 366 366 365 366 366
357 357 358 358 356 357 356 356 359 361 364 363 361 361 365 364 364 363 366 367 365 366 368 367 370 368 368 368 368 368 367 364 362 365 365 364 363 365 364 366 365 365
358 357 355 355 354 355 355 356 355 359 362 361 361 361 361 366 365 365 367 368 366 367 368 368 368 367 367 368 369 368 368 368 367 367 365 364 364 363 362 364 364 363
356 356 356 356 355 355 355 356 356 356 360 360 360 359 361 363 366 367 367 367 363 365 366 368 367 368 368 366 366 368 368 365 366 367 366 366 364 365 365 365 363 363
360 358 356 357 356 356 356 356 356 357 357 359 359 359 361 360 362 363 363 366 365 365 365 367 368 368 369 368 365 365 367 366 366 367 365 365 365 364 364 365 363 363
360 358 358 357 358 357 358 358 358 357 357 356 359 359 359 358 358 360 363 363 364 364 362 365 366 366 368 369 367 366 366 367 363 365 365 366 365 363 362 362 362 362
358 359 361 361 360 361 360 359 359 359 359 359 359 359 357 357 356 355 359 360 361 361 363 364 365 365 366 368 367 365 364 364 364 363 362 363 363 364 363 361 361 361
358 358 361 362 360 360 359 359 359 359 360 360 360 359 357 358 358 357 357 358 359 361 362 362 360 361 362 364 364 364 363 361 362 363 362 362 363 361 361 363 362 360
354 355 355 356 356 355 356 358 358 359 357 358 359 359 359 360 360 359 358 357 358 360 361 359 359 359 363 355 356 361 363 360 361 363 363 362 362 362 360 360 359 359
349 349 352 353 353 352 353 354 355 357 358 357 357 358 359 361 359 357 357 356 355 356 356 356 356 357 355 340 338 341 355 358 360 362 363 363 361 362 361 359 359 361
350 348 348 348 349 349 350 352 354 355 356 356 355 356 358 357 356 358 359 357 356 356 354 354 355 347 334 335 336 334 343 355 356 357 357 359 360 359 359 359 359 358
349 349 349 349 349 350 350 351 351 352 351 352 355 356 356 356 357 356 357 357 358 358 357 356 356 338 331 332 332 331 331 344 352 355 355 355 357 359 359 359 360 359
348 349 349 350 351 350 350 350 352 351 352 355 355 355 355 354 353 355 356 357 357 357 358 356 357 338 329 328 329 329 329 337 353 353 354 355 357 357 357 357 359 359
343 344 345 347 348 348 347 347 348 349 350 351 353 353 354 354 355 354 355 354 354 354 355 354 347 324 323 321 322 326 326 338 356 353 354 355 356 356 358 358 358 357
340 341 340 341 344 346 347 346 346 347 346 349 350 352 353 354 355 354 354 354 356 356 356 352 340 322 321 320 319 323 328 353 357 358 357 356 356 357 357 359 359 359
338 338 340 341 342 343 342 343 345 346 348 350 348 350 351 351 351 352 353 354 354 354 350 343 342 327 319 317 318 321 338 356 357 357 357 356 356 356 357 357 357 358
337 338 338 340 341 342 343 343 345 348 349 350 348 344 342 343 344 345 346 347 348 348 348 344 342 331 316 315 318 321 343 353 353 356 356 356 356 356 357 358 357 351
336 337 338 340 340 341 344 345 345 346 347 348 347 344 341 342 343 342 344 346 346 344 342 342 340 336 317 315 316 319 338 352 353 355 355 356 356 357 358 358 359 356
336 337 337 338 340 339 341 342 344 343 343 344 343 343 343 342 343 342 341 344 345 345 341 340 340 340 331 313 313 316 322 342 345 345 347 350 353 353 354 357 359 360

ECMWFNIL_sfc_thetae_120.txt.gz
Theta_e
364 366 363 362 363 363 364 364 363 364 365 363 360 362 363 367 369 369 370 371 370 369 369 370 369 368 366 369 371 368 368 367 369 368 367 366 365 361 358 359 359 358
363 365 364 363 363 366 367 366 367 366 367 366 365 365 366 367 368 370 369 369 369 367 370 367 369 369 369 369 370 369 370 370 367 366 368 368 365 362 359 359 357 359
361 362 361 362 360 362 360 365 368 366 364 363 365 368 365 364 368 370 371 370 367 366 369 369 370 369 369 371 372 368 367 373 369 367 369 369 366 364 364 359 360 361
362 362 360 359 360 361 362 364 366 367 367 365 365 364 364 362 367 367 370 369 369 369 368 368 368 368 369 370 372 368 371 370 369 374 372 371 370 367 366 366 363 362
360 360 360 361 361 363 365 364 362 362 364 365 364 366 365 367 365 366 368 368 370 369 369 369 367 369 370 371 371 368 369 368 370 373 371 371 373 371 366 366 366 362
361 362 362 360 363 364 362 362 362 362 364 362 364 365 364 365 365 365 365 365 364 363 364 365 366 367 368 371 371 370 368 363 364 372 370 370 367 367 365 368 369 366
358 360 358 358 359 361 361 362 364 365 362 363 365 364 365 364 363 366 366 364 363 365 363 366 367 367 368 371 371 370 368 367 369 371 369 368 370 370 366 366 366 365
358 358 358 357 356 357 358 360 363 364 366 366 363 365 366 363 365 364 365 365 364 365 366 366 368 369 366 367 369 368 369 365 366 368 368 367 367 367 366 363 365 365
357 357 357 357 354 354 354 355 359 363 366 364 360 361 365 365 363 363 366 368 366 366 369 368 369 368 367 368 369 368 369 366 363 365 366 364 363 364 365 366 364 365
357 356 354 354 352 352 352 353 353 357 360 361 359 358 360 364 365 365 368 369 367 368 369 369 370 368 367 368 368 369 367 366 365 364 362 361 361 361 360 361 361 363
354 354 353 353 351 350 351 351 352 352 357 357 356 356 358 362 364 365 367 369 364 366 368 369 368 368 368 366 366 367 367 363 365 364 363 362 361 361 360 361 359 358
359 357 354 354 352 350 350 351 350 351 353 355 355 355 358 358 362 362 361 364 365 366 367 369 369 369 370 369 365 365 364 362 361 362 360 360 359 357 358 360 358 359
362 357 357 355 356 354 352 352 352 351 351 351 353 353 354 354 354 358 360 361 362 361 360 364 366 365 368 367 365 364 363 363 360 358 358 358 358 356 354 354 354 355
363 363 363 361 360 362 359 356 354 354 355 355 355 355 353 352 352 352 356 358 359 359 360 362 363 363 366 367 366 363 362 361 361 359 356 356 355 356 355 353 353 353
364 365 364 365 365 365 364 361 359 359 360 360 361 357 352 352 353 351 352 354 357 358 359 358 356 359 360 363 363 363 362 359 359 359 357 356 356 355 355 355 355 354
362 362 362 364 363 363 363 364 362 362 360 361 360 360 359 359 358 356 354 353 355 358 360 357 356 355 364 367 365 363 362 358 358 360 360 359 358 358 355 354 353 353
360 359 361 362 362 363 363 362 363 362 362 362 362 362 362 364 363 359 356 352 353 354 355 355 354 352 362 346 348 352 361 362 362 363 365 364 361 361 359 356 355 355
357 358 357 358 361 361 361 362 362 362 362 363 361 360 362 360 360 361 361 359 355 355 353 352 351 339 334 338 344 343 351 360 359 358 357 358 359 358 358 357 355 354
354 355 354 355 357 358 359 360 360 359 359 360 361 363 361 360 361 359 360 361 360 359 356 354 354 332 332 335 335 336 337 351 357 357 355 354 355 358 358 359 361 358
355 355 355 355 355 354 354 355 356 357 359 360 361 362 361 360 360 360 361 362 363 362 362 361 358 332 328 330 332 332 333 339 356 356 356 355 356 357 356 357 360 362
353 354 355 355 355 355 354 355 355 356 356 358 360 360 360 358 359 358 359 360 361 361 360 357 343 324 324 325 326 327 329 336 355 356 356 356 357 359 363 360 361 361
347 349 351 351 351 352 352 352 352 354 353 355 356 359 357 359 359 357 357 359 361 361 358 352 339 320 322 322 322 324 328 349 358 360 361 359 359 361 363 366 365 365
347 346 347 349 349 349 349 349 350 350 353 355 354 354 355 357 355 355 358 359 359 360 358 352 343 325 318 317 319 320 335 358 360 361 360 358 359 362 364 364 364 366
344 346 346 347 348 348 349 350 351 351 350 351 351 350 351 350 350 351 353 354 353 352 351 348 343 328 316 314 315 316 337 361 362 360 358 356 359 361 363 363 363 360
344 345 346 346 348 349 349 348 348 347 349 350 347 345 344 346 347 348 347 346 344 342 344 345 344 334 316 314 313 313 333 357 360 360 358 358 359 360 361 361 364 361
344 345 347 347 346 348 348 348 348 348 348 348 346 345 342 345 345 345 343 343 343 343 341 341 340 336 327 313 311 313 315 345 356 356 355 354 354 355 356 358 359 356

ECMWFNIL_sfc_thetae_123.txt.gz
Theta_e
366 364 365 363 361 362 362 363 362 364 362 360 361 360 364 366 367 365 366 368 366 368 367 368 369 370 365 368 370 368 367 365 368 368 365 364 364 360 354 357 356 354
365 365 364 363 365 365 367 365 364 362 364 366 362 363 365 367 369 369 368 369 368 367 370 367 368 368 367 368 369 367 370 369 364 364 366 366 363 360 357 356 354 356
363 365 364 361 359 361 363 364 366 365 360 363 364 364 364 366 367 370 369 369 367 365 367 368 367 368 366 372 375 368 366 369 366 366 371 368 364 364 363 357 358 360
363 363 362 361 361 359 362 362 367 365 364 362 363 362 362 360 367 364 369 370 368 367 365 367 368 365 366 370 371 366 370 371 368 375 374 372 370 367 366 365 361 359
359 361 362 361 360 360 360 362 362 361 363 362 362 364 365 365 365 363 370 364 368 369 369 366 367 368 367 371 370 366 368 367 367 368 366 367 372 368 364 362 365 361
359 361 363 360 360 362 359 360 361 359 360 362 361 363 361 365 363 364 365 361 362 363 363 363 364 364 366 370 367 365 366 362 363 371 370 367 366 366 362 365 370 365
356 357 357 360 361 361 361 361 360 361 358 361 362 362 361 361 361 364 364 363 361 362 362 363 367 366 366 369 367 368 369 368 369 374 369 366 368 366 364 363 366 364
355 355 357 357 359 361 361 360 361 361 361 362 360 362 364 360 362 362 364 362 363 362 363 365 367 370 366 367 367 369 366 363 360 365 367 366 368 369 365 362 362 364
353 354 354 354 354 357 355 357 360 361 363 362 360 360 364 363 361 360 361 365 363 362 366 366 370 365 365 365 366 368 367 365 363 366 364 362 363 363 362 363 361 362
352 352 351 351 350 351 354 355 356 360 361 361 360 359 359 363 363 362 363 367 363 367 365 366 368 364 363 365 367 370 369 366 365 365 364 363 360 359 359 360 359 360
351 350 349 349 348 348 349 351 352 356 360 359 358 356 359 360 363 364 366 365 360 365 368 365 369 365 365 364 365 366 365 363 364 363 362 360 359 359 358 359 358 358
354 350 348 349 349 347 347 347 349 351 355 357 357 356 357 358 360 360 364 366 363 365 366 366 367 368 367 367 365 365 364 363 362 362 359 359 359 357 357 358 356 357
354 351 349 348 349 348 347 348 347 348 349 352 355 355 355 355 358 360 361 363 363 364 364 367 368 365 369 369 366 365 363 363 359 357 357 357 357 354 352 352 352 352
356 355 355 351 350 352 350 348 347 348 349 350 352 353 351 352 352 354 359 360 362 360 360 364 366 364 366 367 366 364 361 360 360 357 354 355 353 353 351 350 349 348
360 359 359 358 358 356 352 352 351 350 350 351 351 350 348 350 350 349 351 355 357 357 358 356 354 357 358 361 363 363 363 358 357 357 356 354 353 350 351 351 349 347
364 363 363 364 363 363 363 360 356 354 351 351 350 350 352 353 353 351 349 349 350 354 355 352 351 351 360 367 366 366 360 355 353 357 357 355 354 353 349 348 348 348
367 366 367 366 367 367 368 367 365 360 357 358 355 355 355 357 353 349 348 348 347 349 350 350 350 350 358 345 348 355 361 360 359 361 362 360 357 358 357 353 350 349
365 365 365 364 365 366 367 369 368 366 365 364 360 357 359 355 352 353 353 349 346 347 347 347 348 341 336 339 344 344 357 362 356 354 352 353 355 354 352 352 350 348
361 359 359 360 363 366 367 368 367 365 365 365 364 366 362 362 360 357 356 355 351 349 345 346 354 334 334 335 335 336 339 354 355 354 352 349 350 352 352 354 353 351
358 358 357 357 359 361 363 364 365 365 366 366 367 368 367 366 363 360 358 359 357 355 354 353 350 333 329 330 332 334 336 343 356 354 353 352 351 350 348 350 354 353
357 358 357 357 357 357 358 358 358 361 362 365 366 365 366 366 365 361 360 361 362 358 358 349 337 323 325 327 327 328 331 344 357 356 354 353 352 350 356 350 352 350
356 355 357 357 357 357 358 357 358 359 358 362 364 366 361 358 358 357 356 354 357 355 347 347 335 320 320 321 321 324 332 354 359 361 360 358 356 356 355 360 359 358
352 353 354 355 353 351 356 356 357 358 360 361 360 361 357 353 353 354 352 350 350 352 347 344 341 324 317 316 318 318 336 357 360 359 359 357 357 359 362 361 357 357
350 350 349 349 350 349 351 355 356 357 357 358 355 350 348 351 353 352 349 348 348 348 350 343 336 325 316 314 315 315 329 354 361 360 361 361 359 362 362 360 360 362
346 349 349 348 348 349 350 352 352 352 351 352 351 350 350 351 350 348 347 349 346 345 346 343 338 332 316 314 314 313 329 349 358 357 356 356 358 357 358 357 356 355
348 349 348 347 347 347 348 349 350 348 348 349 347 348 349 351 350 347 344 344 347 345 343 342 340 338 327 313 312 313 316 340 352 356 354 352 354 358 359 354 354 356

ECMWFNIL_sfc_thetae_126.txt.gz
Theta_e
368 369 366 364 363 364 363 361 359 358 362 361 361 363 366 367 368 366 364 367 366 368 371 373 373 373 366 371 374 374 373 371 372 368 370 371 366 360 352 356 362 361
365 365 369 364 372 369 369 366 363 363 367 370 366 366 370 368 364 366 367 367 367 366 371 367 371 372 372 368 373 373 379 373 369 365 370 368 368 363 358 359 356 368
362 362 361 360 359 362 358 363 367 364 363 361 363 368 364 363 367 369 371 369 366 364 370 370 370 371 368 372 374 370 368 373 370 367 374 371 370 366 366 355 355 362
365 364 359 357 361 359 360 362 366 367 361 365 362 361 361 360 363 364 370 369 368 370 367 367 367 364 368 371 375 372 370 375 369 375 370 372 373 368 364 366 361 357
361 362 362 358 360 362 362 359 358 360 359 361 361 363 365 370 366 362 367 366 372 365 368 368 369 366 370 372 372 371 368 370 370 374 372 370 373 371 363 363 366 361
362 366 366 363 360 362 356 357 358 356 360 358 358 359 361 362 362 362 366 361 364 363 361 361 364 363 362 369 372 368 366 363 366 371 368 368 366 364 360 370 368 368
356 359 360 360 358 358 359 359 359 360 358 358 363 360 359 361 360 364 366 362 359 363 358 363 367 365 366 370 370 370 370 373 372 371 372 368 371 367 360 365 371 366
355 355 357 360 357 357 359 357 356 359 361 360 358 360 361 357 360 359 362 361 358 359 365 361 366 370 362 364 366 368 366 362 363 371 372 369 369 371 370 361 368 369
355 355 355 356 356 357 356 355 357 356 360 359 357 356 361 360 357 357 364 364 362 367 367 367 373 365 365 368 369 368 366 361 359 366 365 363 363 366 362 366 363 367
354 354 352 352 352 354 354 356 356 356 359 356 356 356 357 361 358 358 362 368 363 366 368 366 367 365 363 364 366 367 366 368 369 369 366 363 364 362 360 363 361 364
351 351 351 350 350 351 354 354 353 355 358 357 356 357 358 357 363 361 364 364 357 361 364 365 366 364 365 360 361 365 366 363 366 367 364 365 363 365 361 368 365 362
358 351 350 350 349 348 349 351 353 354 354 356 356 356 358 357 358 357 360 363 362 362 367 367 367 367 368 366 360 361 363 362 364 365 362 363 362 359 360 360 358 361
357 349 349 348 349 348 347 348 349 349 355 354 355 355 354 355 355 359 362 363 363 361 360 366 367 364 371 369 367 367 364 364 359 361 361 360 358 356 354 355 355 354
355 357 358 356 353 357 355 347 346 347 350 355 357 355 353 351 355 355 355 362 362 359 361 366 369 366 368 371 370 365 361 363 363 359 356 356 356 359 353 350 350 349
362 363 365 366 364 363 355 355 356 352 354 355 355 353 351 353 352 354 356 356 360 364 362 359 361 363 362 365 365 366 365 357 359 359 357 358 358 352 353 354 350 347
365 366 365 368 368 361 367 363 356 361 351 350 352 351 356 360 357 356 350 353 355 358 357 355 354 355 364 367 366 362 360 358 356 369 369 361 362 361 351 349 347 347
366 366 367 366 365 370 368 366 368 370 366 368 361 359 358 370 368 354 348 347 347 349 351 351 352 348 357 348 349 359 360 362 361 364 367 367 363 362 361 355 352 353
368 368 367 368 368 369 370 370 370 370 370 369 362 353 366 356 352 354 358 351 347 347 345 351 347 336 332 336 342 345 358 366 356 356 355 358 357 354 355 353 354 350
362 366 368 368 368 368 369 369 369 368 368 367 363 362 357 363 363 356 356 358 352 356 351 348 344 330 330 333 334 334 338 361 355 356 351 349 351 354 355 357 356 355
356 360 363 363 366 367 367 368 368 367 367 367 365 367 366 363 358 364 362 358 356 354 352 346 341 328 326 328 330 331 336 347 356 355 355 353 355 351 348 351 354 360
357 353 351 358 360 360 361 361 360 361 362 364 362 356 353 354 362 361 360 357 355 352 348 341 331 321 323 324 325 328 332 353 357 356 356 355 355 355 362 359 362 360
355 354 352 351 354 358 358 357 359 359 357 353 353 353 351 356 357 357 356 356 356 353 349 338 331 319 319 320 320 323 333 355 358 362 361 358 357 359 361 363 364 362
354 353 353 354 356 354 355 355 354 354 352 353 351 352 354 353 351 353 352 354 354 351 346 339 333 322 317 316 317 318 339 355 360 359 359 358 357 360 360 363 363 362
352 351 349 346 349 351 352 354 353 353 351 352 348 349 348 348 349 348 348 349 350 348 342 337 333 324 315 314 315 316 334 350 356 359 357 358 356 360 361 361 360 362
351 351 349 348 348 347 350 349 349 349 351 351 349 348 348 348 348 347 347 347 347 345 344 340 338 332 316 314 314 314 328 342 351 356 356 356 357 354 358 359 357 355
352 349 350 348 347 347 349 349 349 349 348 346 347 348 347 349 348 345 343 344 345 343 342 342 339 336 326 313 312 314 317 336 349 353 352 353 354 356 354 355 356 349

ECMWFNIL_sfc_thetae_129.txt.gz
Theta_e
363 362 359 358 359 359 357 357 360 358 355 358 360 358 354 356 359 358 358 361 361 364 364 362 365 365 368 366 367 366 366 363 363 365 363 364 361 360 356 353 350 349
362 364 365 360 361 363 358 358 356 357 358 358 360 359 361 361 362 360 358 360 362 363 363 365 365 365 364 364 366 365 365 364 359 367 364 364 362 362 359 357 353 355
361 362 362 360 359 360 359 360 356 358 359 360 361 360 363 362 363 361 361 360 359 361 362 362 363 363 364 364 363 362 363 362 362 366 365 364 364 361 359 358 357 358
360 360 360 359 358 356 358 359 359 360 361 360 361 360 361 359 362 361 363 370 358 361 362 361 362 362 362 365 364 363 363 363 364 367 365 365 365 365 362 361 360 357
359 358 358 357 358 358 358 357 358 359 357 359 360 358 359 360 361 361 363 363 361 363 361 361 362 360 360 363 365 362 362 362 364 364 361 361 362 364 363 361 358 357
360 359 358 357 358 356 356 356 357 358 357 358 358 358 359 361 359 360 362 361 363 361 360 361 362 361 360 362 365 362 361 364 363 363 362 360 361 361 362 363 361 361
358 358 359 358 357 356 354 354 355 358 357 357 357 356 356 356 358 358 361 359 360 360 359 358 359 359 360 361 363 361 360 362 362 362 361 360 362 361 361 361 363 359
356 358 357 357 354 355 355 354 355 356 357 356 356 356 357 356 357 359 361 358 359 359 357 358 360 359 360 363 360 361 361 362 364 363 362 362 361 360 362 362 360 359
353 355 356 356 354 354 355 355 355 355 358 355 355 355 358 357 357 356 360 358 357 356 357 357 359 360 360 360 361 360 360 360 359 362 363 362 361 359 359 360 359 357
352 352 354 355 353 353 354 354 354 355 357 355 355 355 355 357 356 355 358 358 357 361 356 359 361 361 360 362 362 362 361 360 360 363 363 361 359 358 359 357 356 356
351 351 350 351 353 353 353 354 353 354 356 355 354 354 355 356 357 356 357 358 357 358 361 359 359 362 361 360 360 361 362 362 361 359 360 359 358 358 367 358 357 356
348 348 348 348 348 351 353 353 352 352 354 355 354 353 354 355 355 355 358 357 356 356 358 359 360 361 360 359 358 359 360 361 360 361 360 359 359 358 356 355 352 351
348 347 347 348 348 346 347 352 351 351 353 353 354 352 353 353 356 354 359 357 357 359 360 361 361 361 361 361 360 360 359 360 358 358 358 359 358 357 356 354 353 352
351 349 347 347 347 347 346 345 349 351 351 352 354 353 353 353 352 352 358 359 360 360 360 362 361 360 362 362 362 361 362 359 359 358 355 354 353 353 353 352 351 352
351 351 353 354 356 347 346 349 351 347 350 351 352 352 352 351 353 354 354 355 360 358 356 359 362 362 363 363 362 363 362 359 357 357 356 353 352 352 350 350 350 347
351 351 352 356 356 353 347 348 349 357 352 350 351 350 349 350 351 353 351 350 352 353 357 357 358 362 362 363 369 361 357 357 355 354 355 353 353 352 352 349 347 346
352 352 353 355 356 356 356 358 360 361 358 359 356 349 348 350 348 349 349 351 351 351 352 353 349 344 344 335 339 353 363 355 354 354 355 358 358 353 351 351 350 349
354 354 354 356 358 358 358 358 360 360 359 358 358 357 358 353 351 350 351 352 348 347 346 343 339 335 330 333 337 341 353 359 356 352 353 352 353 352 351 349 348 349
356 360 358 351 347 347 349 351 358 359 354 352 352 354 353 354 358 354 352 349 345 344 344 342 335 328 327 330 332 332 336 357 355 353 349 348 348 349 347 346 350 354
350 350 347 347 347 347 347 347 345 345 348 347 347 348 349 351 358 356 354 351 348 344 339 334 331 326 324 326 327 329 334 346 354 353 351 350 350 349 351 354 356 354
350 346 346 348 347 347 346 347 346 346 347 348 348 347 347 348 352 353 352 353 349 341 334 330 326 321 322 323 323 326 330 350 354 356 355 354 354 352 356 357 357 359
351 347 348 347 347 347 347 347 347 348 348 347 347 347 346 348 352 353 352 352 350 340 333 329 326 319 320 320 321 323 336 354 354 354 354 355 355 357 358 358 358 357
351 349 347 346 347 349 350 351 350 349 347 348 345 346 348 348 349 349 349 350 348 340 334 330 328 321 317 317 318 319 336 350 353 355 355 354 354 356 358 357 356 352
349 347 345 345 346 349 349 348 349 349 349 351 347 346 346 346 346 345 347 347 343 339 335 332 329 323 315 314 315 317 335 343 348 354 354 352 353 355 355 355 358 361
347 347 345 345 344 344 346 346 345 344 346 345 345 345 346 346 346 344 343 342 342 341 341 335 333 328 315 314 314 315 329 337 344 349 351 351 353 352 354 352 347 350
345 346 345 343 343 343 344 344 345 344 344 345 345 346 345 346 346 344 341 340 341 340 339 336 333 331 325 313 313 315 318 336 343 346 347 349 352 354 353 349 342 340

ECMWFNIL_sfc_thetae_132.txt.gz
Theta_e
355 356 352 353 353 356 355 355 355 355 354 354 356 353 353 355 357 356 357 356 357 360 358 358 360 359 364 362 363 362 363 360 359 359 357 358 358 357 356 354 353 350
358 358 358 356 358 360 356 357 357 355 354 355 358 357 353 355 356 356 356 356 358 360 359 359 360 360 361 361 361 360 360 360 356 365 361 359 357 357 356 356 355 352
359 358 357 355 357 357 356 357 358 356 355 355 358 358 357 357 356 357 356 356 356 359 359 360 360 360 361 360 360 361 361 357 357 361 361 357 359 358 357 358 357 356
359 359 357 357 358 358 356 356 355 356 356 357 357 359 360 361 358 358 356 363 355 357 359 359 360 359 359 359 359 357 358 357 358 360 359 360 360 361 359 357 359 357
358 359 358 357 357 359 357 356 354 355 356 357 358 358 359 358 358 358 357 359 355 356 358 358 359 358 359 357 359 357 358 358 359 359 355 355 356 360 361 359 356 356
359 358 358 357 356 355 356 356 355 355 356 356 358 359 357 357 358 358 359 359 356 358 359 357 358 358 357 356 359 358 358 360 358 358 357 355 358 359 360 358 357 355
358 356 356 355 356 355 355 355 356 359 356 356 357 356 356 357 357 357 359 359 359 359 359 357 357 357 357 356 359 358 356 357 357 357 357 357 357 357 359 358 358 357
358 357 356 355 355 354 354 354 355 356 356 355 356 355 356 355 357 358 359 358 359 358 357 357 357 357 358 357 359 358 357 360 359 357 356 356 355 355 358 360 358 354
357 356 356 354 354 354 353 353 354 355 356 355 354 354 355 353 357 357 358 357 357 357 356 356 356 357 357 357 357 358 358 358 358 358 358 357 357 357 357 357 356 354
355 356 355 354 352 352 353 352 353 354 357 354 354 354 354 354 355 356 358 357 356 356 356 356 356 357 357 357 358 357 357 357 357 356 358 359 359 358 358 356 354 352
353 355 354 354 352 351 352 353 353 353 355 354 353 353 355 354 355 354 356 357 356 355 355 355 355 356 357 357 358 359 358 358 357 357 358 359 360 359 364 357 355 354
350 352 353 353 353 352 352 353 353 352 353 355 353 352 352 354 354 354 355 355 356 355 356 355 356 357 357 357 358 359 359 359 359 358 357 357 357 357 356 357 356 354
349 350 351 352 353 352 352 352 352 352 353 353 354 352 352 352 353 353 356 355 355 355 356 356 357 358 358 357 357 356 357 357 357 357 357 358 357 357 356 355 354 352
348 348 349 349 351 351 351 352 352 350 353 354 354 352 351 352 352 352 354 355 355 355 355 357 356 357 356 357 357 356 356 356 356 356 355 354 355 355 356 355 354 353
347 347 347 347 350 348 347 348 350 349 350 352 352 352 352 351 352 352 355 355 355 356 356 358 359 358 358 357 358 357 357 357 356 356 356 353 353 352 351 351 350 349
348 348 347 346 347 347 346 344 346 348 348 349 350 351 350 351 350 351 353 354 355 355 353 354 357 360 363 367 367 361 357 358 356 355 354 353 353 352 351 351 350 346
348 348 348 348 350 347 345 344 347 348 347 347 348 348 348 349 350 350 350 351 353 354 353 352 349 345 343 334 340 347 362 356 354 353 352 353 352 349 348 350 348 348
347 347 347 348 351 351 352 353 354 353 351 350 350 351 352 351 347 348 348 348 349 348 345 343 339 335 328 332 336 340 351 355 354 352 352 350 350 349 347 346 348 351
347 346 346 350 351 353 354 353 351 350 349 350 350 352 353 349 347 347 346 346 345 343 342 340 334 329 327 330 331 332 335 356 352 352 350 349 347 345 343 346 350 352
348 349 347 348 348 349 349 348 348 347 346 346 348 350 352 352 350 347 345 343 343 342 337 334 330 327 325 327 328 330 333 344 350 350 349 347 347 348 353 352 351 351
340 338 338 339 342 345 345 344 345 343 344 344 345 348 350 350 349 347 345 344 339 335 333 330 327 322 322 324 324 327 331 348 348 353 351 350 351 354 354 355 353 352
343 341 340 339 338 339 342 344 343 342 342 344 344 344 346 349 349 349 345 339 335 333 330 327 325 319 320 320 321 325 343 351 349 348 350 353 355 354 354 354 353 348
346 344 343 342 342 342 342 345 344 343 342 344 342 344 347 348 348 348 345 339 336 333 329 327 327 321 317 316 317 321 340 345 347 351 351 352 353 354 352 351 349 346
345 344 343 342 342 341 344 346 349 348 346 346 342 344 346 346 346 346 345 342 336 332 330 328 326 322 315 314 315 319 337 339 344 348 349 351 352 353 353 353 355 356
344 344 343 342 341 341 343 344 345 344 344 344 344 344 345 345 346 342 341 339 338 337 339 331 329 326 315 315 315 319 333 337 341 343 347 346 350 350 347 343 344 350
345 345 343 342 341 341 342 342 343 342 341 341 342 344 345 344 344 342 339 339 339 337 335 332 330 329 325 315 317 320 330 339 338 341 342 346 349 349 342 340 339 340

ECMWFNIL_sfc_thetae_135.txt.gz
Theta_e
350 352 350 350 349 350 351 349 349 350 350 350 350 351 352 354 355 354 355 355 355 355 355 355 355 355 359 357 360 357 358 354 355 355 354 355 353 354 354 353 352 349
351 354 355 352 352 355 353 351 351 351 351 351 351 352 352 354 355 355 354 354 355 356 356 356 356 356 356 358 357 356 355 355 351 363 359 355 353 353 354 354 353 351
353 354 353 351 351 354 354 354 353 353 352 352 354 355 353 355 354 354 354 354 353 355 356 356 356 357 357 357 356 357 357 354 354 355 357 352 354 354 354 356 354 354
354 355 354 352 353 354 355 354 355 354 353 353 353 357 357 356 354 354 354 361 354 354 356 356 357 357 357 357 355 355 355 354 354 355 355 355 356 356 355 354 357 355
356 356 355 353 354 355 355 354 355 354 354 353 354 355 358 356 354 354 354 354 355 353 355 356 356 356 357 355 354 353 354 354 354 355 353 352 353 355 357 356 353 354
357 357 356 354 354 355 354 353 354 354 354 354 354 357 356 357 356 355 355 354 355 354 355 356 355 356 356 354 354 354 354 356 355 354 354 352 355 355 358 356 352 352
357 356 356 355 355 355 355 354 354 356 354 355 356 355 356 356 355 356 356 356 355 354 355 355 354 354 355 353 352 354 354 354 354 353 353 354 355 356 356 355 354 352
357 357 356 355 354 354 354 354 354 354 354 354 354 355 356 356 355 356 357 357 356 354 355 356 355 354 355 354 353 353 354 357 357 354 353 353 351 353 354 357 355 352
357 356 355 354 353 353 353 354 354 354 356 354 354 354 355 355 355 356 356 356 356 355 355 356 355 355 355 355 354 354 354 356 357 355 354 354 353 354 355 354 353 352
355 356 355 354 353 353 352 353 353 354 356 355 354 354 354 354 354 355 356 356 355 356 355 355 355 355 355 355 355 355 355 355 355 354 354 355 355 355 355 355 355 351
354 355 354 354 353 353 353 353 352 353 354 354 354 353 353 353 353 354 355 355 355 355 355 354 354 355 354 355 355 356 355 355 355 354 354 355 356 357 363 357 355 353
352 353 354 353 353 352 352 353 353 352 352 354 354 352 352 353 352 353 354 355 355 355 355 354 354 354 354 355 355 356 356 356 356 355 355 355 356 357 357 357 356 355
350 352 353 353 353 352 351 351 352 352 351 351 354 353 351 352 352 352 354 354 355 355 355 354 354 354 354 354 355 355 356 355 356 355 355 355 355 356 356 355 354 354
349 350 351 352 353 353 351 351 351 351 351 351 352 352 351 351 351 352 352 353 354 355 355 355 354 354 354 354 355 355 355 355 355 355 355 355 356 356 356 356 355 354
349 349 350 351 353 351 351 350 350 350 350 350 351 352 352 351 351 352 352 352 353 353 354 354 355 355 355 355 355 354 354 354 354 354 354 354 353 353 353 352 352 351
348 349 348 348 349 349 349 349 349 349 349 348 350 351 351 351 350 351 351 351 352 352 353 354 355 356 360 364 363 357 354 355 355 354 354 354 353 351 351 350 350 349
347 347 347 346 347 347 347 347 346 347 348 347 347 349 349 350 350 348 349 351 352 352 352 353 355 357 362 345 347 356 362 355 354 353 353 353 351 350 349 350 349 348
346 346 346 345 345 345 346 345 345 344 344 345 346 346 348 348 348 348 348 349 351 352 352 351 350 348 335 335 341 343 356 358 355 354 353 351 351 350 349 349 345 348
345 345 345 345 344 345 345 346 345 345 346 345 344 346 347 347 346 347 347 347 347 348 348 348 345 332 329 332 333 335 338 356 352 353 352 350 349 349 348 345 346 350
344 344 342 341 342 343 344 343 344 344 342 343 346 348 347 347 346 345 346 345 345 345 346 341 336 330 326 328 329 330 333 344 348 349 350 349 348 347 346 345 349 349
342 342 341 340 341 343 343 342 341 340 341 342 341 344 346 347 346 344 344 345 344 342 339 335 332 323 322 325 324 327 330 343 347 348 348 346 346 345 348 350 349 348
339 339 341 341 341 342 344 343 342 342 341 342 342 341 345 346 344 343 343 339 337 336 335 330 326 319 319 320 321 324 335 349 346 346 346 347 349 350 351 351 348 344
341 341 340 341 342 341 343 343 342 341 341 343 340 343 345 345 342 340 337 334 335 332 330 327 327 322 317 316 317 321 340 343 344 346 346 348 349 349 349 349 346 342
343 342 340 339 339 340 341 343 345 346 344 345 340 342 345 344 345 342 338 337 333 330 329 327 325 324 315 314 315 319 338 340 343 346 346 349 350 349 347 345 347 355
342 341 339 337 337 338 340 339 341 344 344 343 341 341 342 342 341 339 338 335 334 335 339 330 328 329 317 314 316 319 333 336 341 345 347 349 350 349 345 343 345 351
342 343 341 339 338 338 340 341 343 342 341 341 341 342 341 342 343 340 338 336 336 334 333 332 329 329 326 313 313 319 329 338 338 344 346 348 349 345 341 339 340 338

ECMWFNIL_sfc_thetae_138.txt.gz
Theta_e
349 350 349 350 349 349 349 350 351 351 351 352 352 352 354 356 358 358 358 359 359 359 358 359 360 361 361 361 361 359 362 358 361 361 360 362 360 359 357 359 359 358
350 353 354 352 352 354 352 352 351 351 351 352 353 354 355 357 357 358 358 357 359 359 359 358 359 360 360 360 360 361 360 361 359 364 366 362 361 359 359 361 359 359
352 352 353 352 351 352 352 353 353 352 352 353 354 354 355 357 357 357 358 358 357 357 358 359 359 360 360 360 361 362 363 361 361 360 364 360 359 361 362 361 360 361
353 354 353 353 352 352 354 354 353 353 354 353 354 355 356 356 358 357 357 362 358 357 358 359 360 360 361 361 361 362 362 362 362 361 361 362 360 361 361 362 362 361
355 355 355 354 354 355 355 354 354 354 354 354 355 357 359 358 357 356 357 357 359 357 357 359 359 360 361 361 361 360 360 361 361 361 361 360 361 361 362 362 360 360
356 357 357 355 354 355 355 354 355 355 355 354 355 357 358 358 358 357 357 356 356 357 356 357 358 359 359 360 360 360 360 359 360 361 361 360 360 360 360 361 361 360
356 357 357 356 355 355 355 355 355 358 356 356 357 356 358 357 358 359 358 357 356 358 356 357 358 359 359 360 359 359 359 359 360 360 360 360 361 361 361 361 361 360
356 357 358 357 355 355 356 355 355 356 357 357 356 357 358 357 358 358 359 358 357 357 358 357 358 359 358 358 358 358 358 358 359 359 359 360 359 359 360 360 361 360
357 357 357 357 355 355 355 355 355 356 357 356 356 357 358 358 358 358 359 359 359 359 358 357 359 358 358 358 358 358 357 358 359 360 359 359 358 359 359 360 359 360
356 357 357 356 355 355 354 355 356 356 358 356 356 356 356 358 358 358 358 359 358 359 358 358 358 358 358 358 358 358 358 358 359 359 359 359 358 359 359 360 359 359
355 356 356 356 356 355 355 355 355 356 357 357 356 355 356 356 358 358 358 358 357 358 358 358 358 358 359 358 358 359 358 358 359 359 359 359 359 360 361 361 360 359
354 356 356 355 356 356 355 355 355 355 355 357 357 356 356 356 356 356 357 357 358 358 359 359 359 359 359 359 358 359 358 359 359 359 358 359 359 359 359 361 361 361
353 354 356 356 356 356 356 356 355 355 354 354 357 356 355 354 354 355 357 357 358 358 358 359 359 358 359 359 359 359 359 359 358 358 359 358 359 358 359 360 360 359
352 354 355 356 356 357 356 355 355 355 355 355 356 356 355 354 354 354 355 356 356 357 358 359 359 358 358 359 359 358 358 358 358 358 358 359 359 360 360 360 360 359
352 353 354 355 357 356 355 354 353 354 354 354 355 355 354 355 355 354 355 355 356 357 358 358 357 357 358 358 358 358 358 357 358 358 358 358 358 358 359 359 359 358
351 352 352 353 354 354 354 354 353 353 352 352 352 354 354 356 355 355 354 354 354 355 356 356 357 357 360 362 362 360 358 357 357 359 358 358 358 358 357 357 356 356
350 351 351 351 352 353 353 353 353 353 353 352 352 352 353 354 356 353 352 353 353 354 354 354 355 356 359 345 346 356 362 358 358 358 359 358 357 358 357 357 357 356
350 350 350 350 350 351 352 352 352 351 351 351 351 350 352 353 353 352 352 352 353 353 353 354 355 353 341 342 346 346 359 362 358 357 357 357 357 357 357 356 356 354
349 349 349 348 349 349 350 350 350 349 348 348 348 350 350 351 351 351 351 352 352 352 353 354 355 346 340 340 339 340 342 360 360 360 358 357 357 357 357 357 356 355
346 347 347 347 348 349 349 350 349 348 348 348 349 350 349 348 349 350 350 351 350 351 352 353 354 339 332 332 332 332 334 342 353 356 357 358 358 356 355 355 355 354
346 346 346 346 346 348 348 349 349 349 348 348 349 350 349 349 349 349 349 351 350 350 350 349 341 324 325 327 326 327 330 341 347 349 351 353 354 355 356 355 354 354
340 342 345 345 345 347 348 348 348 347 347 346 348 347 349 350 349 350 348 347 346 346 347 341 329 319 320 320 321 323 330 344 348 349 349 350 351 352 353 355 355 355
342 342 341 342 341 340 340 341 341 343 344 346 345 347 348 347 345 341 340 340 341 338 338 333 332 322 316 316 317 317 334 347 349 350 350 349 352 354 355 355 353 351
341 341 341 340 339 340 340 341 342 342 342 346 345 347 347 345 343 339 338 339 337 335 335 334 331 324 315 314 315 317 331 343 348 351 352 352 353 353 353 352 352 354
342 341 341 340 340 340 341 341 341 341 342 341 340 343 344 343 342 339 336 337 339 340 339 333 332 329 315 313 313 316 331 340 343 348 349 350 351 350 348 349 350 350
343 343 341 341 340 340 342 341 342 342 341 341 341 342 342 343 342 339 337 336 336 334 334 333 330 326 320 312 312 315 323 340 340 343 346 349 351 349 346 345 343 339

ECMWFNIL_sfc_thetae_141.txt.gz
Theta_e
360 359 358 357 358 358 360 360 358 358 361 358 358 359 360 363 365 365 365 366 366 366 367 368 368 369 366 368 372 369 367 366 366 365 365 365 363 361 357 360 362 363
360 361 362 359 361 362 362 361 361 361 362 364 362 361 364 365 363 364 364 364 366 365 368 365 367 368 368 366 369 366 367 368 366 363 366 365 364 363 360 362 361 365
360 360 359 358 356 358 356 360 362 362 359 359 362 365 362 364 363 366 366 366 364 363 366 367 367 367 365 367 370 366 363 366 365 363 366 365 364 363 364 360 359 361
362 360 357 357 357 357 358 360 361 362 361 361 360 360 361 359 363 363 366 368 366 365 364 365 365 364 365 366 370 366 365 366 365 368 366 366 366 363 363 363 362 360
360 361 360 359 359 361 361 359 357 358 359 359 359 362 365 365 365 362 364 364 367 364 364 365 366 365 367 367 369 366 364 363 366 369 366 364 366 365 362 363 364 361
362 364 364 361 362 361 358 358 359 357 359 358 360 360 361 364 363 362 362 361 361 361 361 361 362 363 363 365 367 366 363 361 363 365 364 364 363 363 361 363 365 363
359 362 361 362 361 361 360 360 361 362 360 360 362 361 362 361 362 364 364 362 360 362 360 362 364 363 364 366 367 366 366 366 365 365 365 363 365 364 363 364 366 366
358 361 362 362 360 360 360 359 360 361 363 364 361 362 363 361 362 361 363 362 361 361 363 362 365 367 362 363 364 365 363 361 362 365 365 364 364 365 365 362 365 365
359 360 361 361 359 359 358 357 359 361 363 363 360 359 363 362 361 361 363 364 363 363 365 363 365 363 363 365 365 365 363 361 360 363 363 361 360 363 362 364 363 364
360 360 359 359 358 358 358 358 358 359 363 361 360 360 359 364 363 362 362 366 364 365 365 365 365 364 364 365 366 365 363 363 364 364 363 362 362 361 361 362 361 361
359 359 359 359 358 357 357 357 357 358 361 361 360 359 361 362 364 365 365 366 361 362 364 365 365 365 365 364 363 364 364 362 363 365 364 363 363 364 364 364 364 362
361 360 359 359 359 358 358 357 358 358 360 362 361 361 362 362 362 363 363 364 364 363 364 366 367 367 367 367 364 364 364 364 364 364 363 364 363 362 363 364 363 364
361 360 360 359 360 359 358 358 359 359 359 360 362 362 361 360 360 362 363 363 364 363 362 365 367 366 368 368 366 365 365 365 363 364 364 364 364 363 363 364 363 362
362 362 363 362 362 363 361 360 359 359 361 362 362 362 360 360 360 360 362 363 363 363 365 366 367 367 368 369 368 366 365 365 364 363 363 363 363 364 364 363 363 363
363 364 365 365 364 365 363 361 361 362 363 363 364 362 359 361 362 361 361 361 362 363 364 364 363 364 364 366 366 367 366 363 364 364 364 363 364 362 363 363 363 363
363 364 364 364 364 364 365 364 362 363 361 362 361 362 362 363 364 363 361 360 360 362 363 361 362 362 366 364 363 365 365 363 362 365 365 364 364 364 361 361 361 362
363 362 363 363 364 364 365 365 365 364 364 363 363 362 363 365 364 362 361 359 359 359 359 359 359 361 361 346 347 353 364 364 365 362 363 367 364 365 364 361 362 362
359 360 361 362 363 363 365 366 366 366 365 365 363 361 364 362 361 361 362 361 359 359 358 358 359 362 344 343 345 345 356 363 362 362 360 359 358 360 362 362 362 361
358 357 358 360 361 363 364 364 364 364 364 364 362 363 362 362 363 360 361 361 360 359 358 358 359 353 340 341 341 341 343 359 360 362 362 361 358 359 359 360 363 364
359 359 358 359 360 361 362 362 362 362 363 363 363 364 362 361 360 360 360 362 361 360 361 360 358 349 338 339 339 339 341 349 363 363 363 362 362 362 359 359 365 364
356 357 356 356 356 357 357 358 359 361 361 363 363 362 361 361 360 360 361 360 359 359 359 357 354 326 328 329 329 330 334 348 359 357 358 360 362 363 366 365 363 364
354 353 351 351 353 355 356 355 356 358 360 360 360 361 361 362 362 361 360 360 361 360 357 356 342 319 322 323 322 325 333 348 356 359 360 359 360 361 362 364 363 363
348 348 349 350 351 352 355 356 355 353 353 354 354 356 357 358 357 357 357 357 357 357 356 357 346 324 316 318 320 319 334 353 358 358 359 358 358 360 361 361 362 364
349 350 349 348 348 349 350 351 351 352 350 349 350 350 352 355 354 353 352 351 350 350 351 351 343 326 314 314 316 320 337 353 358 358 358 359 359 362 363 361 360 357
348 348 348 348 347 347 347 346 348 349 349 348 346 347 349 348 349 348 347 348 348 347 342 345 342 333 315 314 316 320 340 354 354 355 355 356 357 357 357 356 355 347
346 345 345 347 346 347 347 347 348 348 349 349 346 344 344 347 345 345 345 343 342 341 340 339 337 334 323 311 314 319 329 351 352 351 351 352 354 355 356 353 347 343

ECMWFNIL_sfc_thetae_144.txt.gz
Theta_e
359 360 357 357 357 356 358 355 354 355 357 354 352 355 355 360 362 361 361 366 365 366 368 369 369 368 366 369 372 369 369 369 368 366 365 363 362 359 356 361 361 358
359 361 361 359 359 361 360 359 358 357 358 360 358 357 360 361 361 362 362 362 365 365 369 368 369 368 368 369 371 367 367 369 368 364 365 366 363 361 358 359 358 361
359 359 358 359 357 359 357 359 361 360 357 357 359 361 357 359 360 362 363 363 363 363 366 368 369 368 366 368 371 369 365 368 367 366 367 367 364 364 364 358 357 360
360 359 358 357 358 357 357 359 359 361 360 359 358 358 358 356 358 360 363 364 364 365 366 366 366 366 367 366 369 367 367 369 367 370 368 369 369 366 364 363 360 359
358 358 358 360 359 361 361 358 356 356 357 358 359 361 361 361 363 361 362 362 365 365 365 365 366 365 366 367 368 367 365 365 367 370 368 366 369 368 363 362 364 360
359 360 359 358 361 362 359 359 359 356 358 356 358 360 359 360 361 361 361 362 361 359 360 362 363 363 363 365 365 366 364 362 363 369 368 367 365 364 361 363 365 364
356 357 356 357 356 358 359 359 360 360 358 359 361 360 362 360 360 361 363 363 361 363 360 362 365 364 364 365 367 367 366 366 366 367 367 365 366 365 362 362 364 364
356 356 358 358 356 357 357 358 359 360 361 362 360 363 363 361 362 362 362 361 362 362 364 363 364 368 363 363 363 364 364 361 362 365 365 365 364 363 363 359 362 364
356 356 357 357 357 359 358 357 358 358 361 360 359 360 363 362 361 361 363 365 364 363 366 365 366 365 364 363 363 364 365 362 360 363 363 362 361 361 360 361 359 362
358 356 356 357 356 358 358 359 358 359 361 359 359 359 358 363 362 362 363 367 363 364 365 366 366 365 364 364 364 364 364 365 364 363 362 360 359 358 357 358 357 359
358 356 357 358 357 356 356 356 357 357 360 360 360 358 360 361 364 364 365 366 362 362 365 366 366 366 366 364 363 365 366 364 364 365 366 365 363 361 361 361 359 359
361 360 357 358 357 356 356 356 356 356 358 360 360 360 362 360 362 364 363 365 364 364 364 367 368 368 368 368 365 365 364 364 365 366 364 365 364 363 362 361 360 362
360 359 359 358 358 358 356 357 356 355 356 357 361 361 361 360 360 362 364 364 366 364 362 365 367 366 369 370 368 366 364 364 363 364 365 364 364 362 362 361 361 361
363 361 361 360 360 362 359 358 356 356 357 359 361 362 360 360 359 359 361 363 363 363 365 366 367 368 370 371 369 367 365 364 364 364 362 362 362 364 363 362 362 361
368 366 364 362 362 363 361 359 359 360 359 361 363 362 359 360 360 359 360 361 362 364 365 364 362 364 365 366 367 367 366 363 363 364 363 362 362 360 361 362 362 362
370 369 368 367 365 365 365 363 361 362 360 361 362 362 363 364 363 363 362 361 361 363 364 362 361 361 365 370 369 365 365 362 361 363 364 363 366 365 362 362 361 362
371 372 372 369 368 367 367 367 364 365 363 363 363 363 363 365 365 362 361 360 359 360 360 358 359 357 356 347 349 355 362 363 363 364 366 369 365 364 362 362 360 361
366 367 368 370 369 368 368 368 368 366 366 367 365 363 366 364 362 362 363 362 360 360 358 357 356 347 339 341 346 345 354 363 360 361 361 362 364 362 361 361 360 361
365 364 364 364 367 369 369 367 367 367 366 365 362 364 362 363 364 362 363 363 361 362 359 361 361 346 337 340 341 343 343 357 359 357 357 358 358 359 360 362 365 363
361 363 362 363 364 367 368 366 365 363 364 365 364 365 365 364 363 363 364 365 364 364 364 363 362 346 336 340 340 339 341 349 362 356 358 361 359 359 361 362 362 366
361 362 362 362 363 365 366 366 365 364 364 364 364 365 366 367 365 364 365 365 363 361 361 358 351 324 328 329 331 334 338 348 361 358 360 360 360 359 361 360 363 363
361 361 361 360 361 357 360 361 363 365 363 364 364 365 365 367 368 367 366 367 368 367 365 363 341 319 321 324 323 327 335 352 359 364 364 362 361 360 362 363 363 366
360 360 360 359 359 359 360 361 362 363 363 365 364 365 363 364 365 363 364 363 363 364 363 361 344 323 316 318 321 322 334 354 360 360 363 364 363 364 366 365 364 360
359 359 356 355 355 354 357 360 361 362 362 363 362 362 362 361 361 360 360 358 357 356 353 359 344 325 313 315 317 319 334 352 359 360 363 363 363 364 367 364 354 357
355 354 354 353 353 353 354 354 355 356 357 357 356 357 357 358 357 358 356 357 355 352 346 351 346 331 314 313 314 318 335 355 358 359 359 360 360 360 360 357 348 343
351 351 351 350 350 351 353 354 354 354 354 355 354 353 352 353 354 354 353 351 350 349 346 345 342 334 321 311 312 316 323 349 356 355 355 356 356 355 350 349 346 339